Time,TemperatureF,DewpointF,PressureIn,WindDirection,WindDirectionDegrees,WindSpeedMPH,WindSpeedGustMPH,Humidity,HourlyPrecipIn,Conditions,Clouds,dailyrainin,SolarRadiationWatts/m^2,SoftwareType,DateUTC
2013-02-10 00:00:00,31.1,20.0,30.38,West,281,0.0,3.0,63,0.00,,SKC,0.00,0.00,VWS V14.01,2013-02-10 05:00:00,
2013-02-10 00:05:00,31.1,18.9,30.39,West,281,0.0,1.0,60,0.00,,SKC,0.00,0.00,VWS V14.01,2013-02-10 05:05:00,
2013-02-10 00:06:00,31.1,18.9,30.39,West,281,0.0,1.0,60,0.00,,SKC,0.00,0.00,VWS V14.01,2013-02-10 05:06:00,
2013-02-10 00:10:00,31.2,19.0,30.39,West,281,2.0,3.0,60,0.00,,SKC,0.00,0.00,VWS V14.01,2013-02-10 05:10:00,
2013-02-10 00:11:00,31.2,19.3,30.39,West,281,2.0,3.0,61,0.00,,SKC,0.00,0.00,VWS V14.01,2013-02-10 05:11:00,
2013-02-10 00:15:00,30.9,18.7,30.40,West,281,0.0,3.0,60,0.00,,SKC,0.00,0.00,VWS V14.01,2013-02-10 05:15:00,
2013-02-10 00:16:00,30.9,19.0,30.40,West,281,0.0,3.0,61,0.00,,SKC,0.00,0.00,VWS V14.01,2013-02-10 05:16:00,
2013-02-10 00:20:00,30.5,19.0,30.40,West,281,2.0,3.0,62,0.00,,SKC,0.00,0.00,VWS V14.01,2013-02-10 05:20:00,
2013-02-10 00:21:00,30.5,19.0,30.40,West,281,1.0,3.0,62,0.00,,SKC,0.00,0.00,VWS V14.01,2013-02-10 05:21:00,
2013-02-10 00:25:00,30.2,20.2,30.40,West,281,1.0,3.0,66,0.00,,SKC,0.00,0.00,VWS V14.01,2013-02-10 05:25:00,
2013-02-10 00:26:00,30.1,20.5,30.40,West,281,2.0,3.0,67,0.00,,SKC,0.00,0.00,VWS V14.01,2013-02-10 05:26:00,
2013-02-10 00:27:00,30.0,20.4,30.40,West,281,0.0,3.0,67,0.00,,SKC,0.00,0.00,VWS V14.01,2013-02-10 05:27:00,
2013-02-10 00:30:00,29.6,19.6,30.41,West,281,0.0,3.0,66,0.00,,SKC,0.00,0.00,VWS V14.01,2013-02-10 05:30:00,
2013-02-10 00:31:00,29.6,19.6,30.41,West,281,0.0,0.0,66,0.00,,SKC,0.00,0.00,VWS V14.01,2013-02-10 05:31:00,
2013-02-10 00:32:00,29.6,19.6,30.41,West,281,0.0,0.0,66,0.00,,SKC,0.00,0.00,VWS V14.01,2013-02-10 05:32:00,
2013-02-10 00:35:00,29.6,19.3,30.40,West,281,0.0,0.0,65,0.00,,SKC,0.00,0.00,VWS V14.01,2013-02-10 05:35:00,
2013-02-10 00:36:00,29.6,19.3,30.40,West,281,0.0,0.0,65,0.00,,SKC,0.00,0.00,VWS V14.01,2013-02-10 05:36:00,
2013-02-10 00:37:00,29.6,19.3,30.40,West,281,0.0,0.0,65,0.00,,SKC,0.00,0.00,VWS V14.01,2013-02-10 05:37:00,
2013-02-10 00:40:00,29.5,19.6,30.41,West,281,0.0,0.0,66,0.00,,SKC,0.00,0.00,VWS V14.01,2013-02-10 05:40:00,
2013-02-10 00:41:00,29.5,19.6,30.41,West,281,0.0,0.0,66,0.00,,SKC,0.00,0.00,VWS V14.01,2013-02-10 05:41:00,
2013-02-10 00:42:00,29.4,19.8,30.41,West,281,0.0,0.0,67,0.00,,SKC,0.00,0.00,VWS V14.01,2013-02-10 05:42:00,
2013-02-10 00:46:00,29.3,20.1,30.40,West,281,1.0,2.0,68,0.00,,SKC,0.00,0.00,VWS V14.01,2013-02-10 05:46:00,
2013-02-10 00:47:00,29.2,20.0,30.41,West,281,0.0,2.0,68,0.00,,SKC,0.00,0.00,VWS V14.01,2013-02-10 05:47:00,
2013-02-10 00:51:00,29.1,19.5,30.41,West,281,1.0,2.0,67,0.00,,SKC,0.00,0.00,VWS V14.01,2013-02-10 05:51:00,
2013-02-10 00:52:00,28.9,19.3,30.41,West,281,3.0,3.0,67,0.00,,SKC,0.00,0.00,VWS V14.01,2013-02-10 05:52:00,
2013-02-10 00:56:00,28.7,18.8,30.40,WNW,282,2.0,3.0,66,0.00,,SKC,0.00,0.00,VWS V14.01,2013-02-10 05:56:00,
2013-02-10 00:58:00,28.6,18.3,30.40,NW,314,1.0,3.0,65,0.00,,SKC,0.00,0.00,VWS V14.01,2013-02-10 05:58:00,
2013-02-10 01:01:00,28.5,17.9,30.40,NNW,338,3.0,3.0,64,0.00,,SKC,0.00,0.00,VWS V14.01,2013-02-10 06:01:00,
2013-02-10 01:02:00,28.5,17.9,30.40,NNW,338,2.0,3.0,64,0.00,,SKC,0.00,0.00,VWS V14.01,2013-02-10 06:02:00,
2013-02-10 01:03:00,28.5,17.9,30.40,NNW,338,1.0,3.0,64,0.00,,SKC,0.00,0.00,VWS V14.01,2013-02-10 06:03:00,
2013-02-10 01:06:00,28.5,17.9,30.40,NNW,338,1.0,3.0,64,0.00,,SKC,0.00,0.00,VWS V14.01,2013-02-10 06:06:00,
2013-02-10 01:07:00,28.5,17.9,30.40,NNW,338,1.0,3.0,64,0.00,,SKC,0.00,0.00,VWS V14.01,2013-02-10 06:07:00,
2013-02-10 01:08:00,28.4,17.8,30.40,NNW,338,1.0,3.0,64,0.00,,SKC,0.00,0.00,VWS V14.01,2013-02-10 06:08:00,
2013-02-10 01:11:00,28.3,17.7,30.40,NNW,338,0.0,3.0,64,0.00,,SKC,0.00,0.00,VWS V14.01,2013-02-10 06:11:00,
2013-02-10 01:12:00,28.3,17.7,30.40,NNW,338,0.0,3.0,64,0.00,,SKC,0.00,0.00,VWS V14.01,2013-02-10 06:12:00,
2013-02-10 01:13:00,28.3,17.7,30.40,NNW,338,0.0,3.0,64,0.00,,SKC,0.00,0.00,VWS V14.01,2013-02-10 06:13:00,
2013-02-10 01:16:00,28.3,17.3,30.40,NNW,338,0.0,3.0,63,0.00,,SKC,0.00,0.00,VWS V14.01,2013-02-10 06:16:00,
2013-02-10 01:17:00,28.3,17.7,30.40,NNW,338,0.0,3.0,64,0.00,,SKC,0.00,0.00,VWS V14.01,2013-02-10 06:17:00,
2013-02-10 01:18:00,28.3,17.3,30.40,NNW,338,1.0,3.0,63,0.00,,SKC,0.00,0.00,VWS V14.01,2013-02-10 06:18:00,
2013-02-10 01:22:00,28.4,17.1,30.40,NNW,338,2.0,3.0,62,0.00,,SKC,0.00,0.00,VWS V14.01,2013-02-10 06:22:00,
2013-02-10 01:23:00,28.5,17.5,30.40,NNW,338,2.0,3.0,63,0.00,,SKC,0.00,0.00,VWS V14.01,2013-02-10 06:23:00,
2013-02-10 01:27:00,28.6,17.6,30.41,NNW,338,3.0,3.0,63,0.00,,SKC,0.00,0.00,VWS V14.01,2013-02-10 06:27:00,
2013-02-10 01:28:00,28.7,17.3,30.41,NNW,338,1.0,3.0,62,0.00,,SKC,0.00,0.00,VWS V14.01,2013-02-10 06:28:00,
2013-02-10 01:32:00,28.9,17.2,30.41,NNW,338,2.0,2.0,61,0.00,,SKC,0.00,0.00,VWS V14.01,2013-02-10 06:32:00,
2013-02-10 01:33:00,29.0,17.2,30.41,NNW,338,2.0,2.0,61,0.00,,SKC,0.00,0.00,VWS V14.01,2013-02-10 06:33:00,
2013-02-10 01:34:00,29.0,17.2,30.41,NNW,338,1.0,2.0,61,0.00,,SKC,0.00,0.00,VWS V14.01,2013-02-10 06:34:00,
2013-02-10 01:37:00,29.4,17.6,30.41,NNW,338,3.0,3.0,61,0.00,,SKC,0.00,0.00,VWS V14.01,2013-02-10 06:37:00,
2013-02-10 01:38:00,29.5,17.7,30.41,NNW,338,2.0,3.0,61,0.00,,SKC,0.00,0.00,VWS V14.01,2013-02-10 06:38:00,
2013-02-10 01:39:00,29.6,18.2,30.40,NNW,338,2.0,3.0,62,0.00,,SKC,0.00,0.00,VWS V14.01,2013-02-10 06:39:00,
2013-02-10 01:42:00,29.7,17.9,30.40,NNW,345,3.0,4.0,61,0.00,,SKC,0.00,0.00,VWS V14.01,2013-02-10 06:42:00,
2013-02-10 01:43:00,29.8,18.0,30.40,NNW,345,3.0,4.0,61,0.00,,SKC,0.00,0.00,VWS V14.01,2013-02-10 06:43:00,
2013-02-10 01:44:00,29.8,18.0,30.40,NNW,345,1.0,4.0,61,0.00,,SKC,0.00,0.00,VWS V14.01,2013-02-10 06:44:00,
2013-02-10 01:47:00,29.7,18.3,30.40,NNW,346,3.0,4.0,62,0.00,,SKC,0.00,0.00,VWS V14.01,2013-02-10 06:47:00,
2013-02-10 01:48:00,29.7,18.3,30.40,NNW,346,2.0,4.0,62,0.00,,SKC,0.00,0.00,VWS V14.01,2013-02-10 06:48:00,
2013-02-10 01:49:00,29.6,18.2,30.40,NNW,346,4.0,4.0,62,0.00,,SKC,0.00,0.00,VWS V14.01,2013-02-10 06:49:00,
2013-02-10 01:53:00,29.7,17.1,30.41,NNW,346,2.0,4.0,59,0.00,,SKC,0.00,0.00,VWS V14.01,2013-02-10 06:53:00,
2013-02-10 01:54:00,29.8,17.2,30.41,NNW,346,1.0,4.0,59,0.00,,SKC,0.00,0.00,VWS V14.01,2013-02-10 06:54:00,
2013-02-10 01:58:00,30.0,17.0,30.40,NNW,346,3.0,4.0,58,0.00,,SKC,0.00,0.00,VWS V14.01,2013-02-10 06:58:00,
2013-02-10 01:59:00,30.1,17.1,30.40,NNW,346,2.0,4.0,58,0.00,,SKC,0.00,0.00,VWS V14.01,2013-02-10 06:59:00,
2013-02-10 02:03:00,30.4,17.0,30.41,NNW,346,3.0,3.0,57,0.00,,SKC,0.00,0.00,VWS V14.01,2013-02-10 07:03:00,
2013-02-10 02:04:00,30.5,17.1,30.41,NNW,346,2.0,3.0,57,0.00,,SKC,0.00,0.00,VWS V14.01,2013-02-10 07:04:00,
2013-02-10 02:05:00,30.5,17.1,30.41,NNW,346,2.0,3.0,57,0.00,,SKC,0.00,0.00,VWS V14.01,2013-02-10 07:05:00,
2013-02-10 02:08:00,30.8,17.0,30.40,NNW,346,2.0,3.0,56,0.00,,SKC,0.00,0.00,VWS V14.01,2013-02-10 07:08:00,
2013-02-10 02:09:00,30.9,17.1,30.40,NNW,346,1.0,3.0,56,0.00,,SKC,0.00,0.00,VWS V14.01,2013-02-10 07:09:00,
2013-02-10 02:10:00,30.9,17.1,30.40,NNW,346,1.0,3.0,56,0.00,,SKC,0.00,0.00,VWS V14.01,2013-02-10 07:10:00,
2013-02-10 02:13:00,31.1,16.4,30.40,NNW,346,3.0,3.0,54,0.00,,SKC,0.00,0.00,VWS V14.01,2013-02-10 07:13:00,
2013-02-10 02:14:00,31.2,16.5,30.40,NNW,346,1.0,3.0,54,0.00,,SKC,0.00,0.00,VWS V14.01,2013-02-10 07:14:00,
2013-02-10 02:15:00,31.2,16.5,30.40,NNW,346,2.0,3.0,54,0.00,,SKC,0.00,0.00,VWS V14.01,2013-02-10 07:15:00,
2013-02-10 02:18:00,31.4,16.7,30.40,NNW,346,1.0,3.0,54,0.00,,SKC,0.00,0.00,VWS V14.01,2013-02-10 07:18:00,
2013-02-10 02:19:00,31.4,16.3,30.40,NNW,346,0.0,3.0,53,0.00,,SKC,0.00,0.00,VWS V14.01,2013-02-10 07:19:00,
2013-02-10 02:20:00,31.4,16.3,30.40,NNW,346,0.0,3.0,53,0.00,,SKC,0.00,0.00,VWS V14.01,2013-02-10 07:20:00,
2013-02-10 02:23:00,31.5,16.4,30.40,NNW,346,0.0,3.0,53,0.00,,SKC,0.00,0.00,VWS V14.01,2013-02-10 07:23:00,
2013-02-10 02:24:00,31.6,16.5,30.40,NNW,346,0.0,3.0,53,0.00,,SKC,0.00,0.00,VWS V14.01,2013-02-10 07:24:00,
2013-02-10 02:25:00,31.5,16.4,30.40,NNW,346,0.0,3.0,53,0.00,,SKC,0.00,0.00,VWS V14.01,2013-02-10 07:25:00,
2013-02-10 02:29:00,31.5,17.6,30.41,NNW,346,0.0,3.0,56,0.00,,SKC,0.00,0.00,VWS V14.01,2013-02-10 07:29:00,
2013-02-10 02:30:00,31.5,17.6,30.41,NNW,346,1.0,3.0,56,0.00,,SKC,0.00,0.00,VWS V14.01,2013-02-10 07:30:00,
2013-02-10 02:34:00,32.4,15.9,30.41,NNW,346,2.0,3.0,50,0.00,,SKC,0.00,0.00,VWS V14.01,2013-02-10 07:34:00,
2013-02-10 02:35:00,32.4,15.9,30.41,NNW,346,2.0,3.0,50,0.00,,SKC,0.00,0.00,VWS V14.01,2013-02-10 07:35:00,
2013-02-10 02:39:00,33.4,15.8,30.42,NNW,346,1.0,3.0,48,0.00,,SKC,0.00,0.00,VWS V14.01,2013-02-10 07:39:00,
2013-02-10 02:40:00,33.4,15.8,30.42,NNW,346,1.0,3.0,48,0.00,,SKC,0.00,0.00,VWS V14.01,2013-02-10 07:40:00,
2013-02-10 02:41:00,33.5,15.4,30.42,NNW,346,2.0,3.0,47,0.00,,SKC,0.00,0.00,VWS V14.01,2013-02-10 07:41:00,
2013-02-10 02:45:00,32.9,15.9,30.42,NNW,346,2.0,3.0,49,0.00,,SKC,0.00,0.00,VWS V14.01,2013-02-10 07:45:00,
2013-02-10 02:46:00,32.8,15.3,30.41,NNW,346,3.0,3.0,48,0.00,,SKC,0.00,0.00,VWS V14.01,2013-02-10 07:46:00,
2013-02-10 02:50:00,32.0,16.8,30.42,NNW,346,2.0,4.0,53,0.00,,SKC,0.00,0.00,VWS V14.01,2013-02-10 07:50:00,
2013-02-10 02:51:00,31.6,17.3,30.42,NNW,346,0.0,4.0,55,0.00,,SKC,0.00,0.00,VWS V14.01,2013-02-10 07:51:00,
2013-02-10 02:55:00,30.1,17.5,30.42,NNW,346,2.0,4.0,59,0.00,,SKC,0.00,0.00,VWS V14.01,2013-02-10 07:55:00,
2013-02-10 02:56:00,30.0,17.0,30.42,NNW,346,2.0,4.0,58,0.00,,SKC,0.00,0.00,VWS V14.01,2013-02-10 07:56:00,
2013-02-10 03:00:00,30.0,16.6,30.42,NNW,346,0.0,4.0,57,0.00,,SKC,0.00,0.00,VWS V14.01,2013-02-10 08:00:00,
2013-02-10 03:01:00,30.0,16.6,30.42,NNW,346,0.0,1.0,57,0.00,,SKC,0.00,0.00,VWS V14.01,2013-02-10 08:01:00,
2013-02-10 03:02:00,30.1,16.7,30.42,NNW,346,1.0,1.0,57,0.00,,SKC,0.00,0.00,VWS V14.01,2013-02-10 08:02:00,
2013-02-10 03:05:00,30.1,16.7,30.42,NNW,346,1.0,1.0,57,0.00,,SKC,0.00,0.00,VWS V14.01,2013-02-10 08:05:00,
2013-02-10 03:06:00,30.1,16.7,30.42,NNW,346,0.0,1.0,57,0.00,,SKC,0.00,0.00,VWS V14.01,2013-02-10 08:06:00,
2013-02-10 03:07:00,30.1,16.7,30.42,NNW,346,0.0,1.0,57,0.00,,SKC,0.00,0.00,VWS V14.01,2013-02-10 08:07:00,
2013-02-10 03:10:00,30.1,17.1,30.42,NNW,346,0.0,1.0,58,0.00,,SKC,0.00,0.00,VWS V14.01,2013-02-10 08:10:00,
2013-02-10 03:11:00,30.1,17.5,30.42,NNW,346,0.0,1.0,59,0.00,,SKC,0.00,0.00,VWS V14.01,2013-02-10 08:11:00,
2013-02-10 03:12:00,30.0,17.4,30.42,NNW,346,0.0,1.0,59,0.00,,SKC,0.00,0.00,VWS V14.01,2013-02-10 08:12:00,
2013-02-10 03:15:00,29.5,17.7,30.42,NNW,346,0.0,2.0,61,0.00,,SKC,0.00,0.00,VWS V14.01,2013-02-10 08:15:00,
2013-02-10 03:16:00,29.1,18.5,30.43,NNW,346,0.0,2.0,64,0.00,,SKC,0.00,0.00,VWS V14.01,2013-02-10 08:16:00,
2013-02-10 03:17:00,29.0,18.4,30.43,NNW,346,0.0,2.0,64,0.00,,SKC,0.00,0.00,VWS V14.01,2013-02-10 08:17:00,
2013-02-10 03:20:00,28.5,18.2,30.43,NNW,346,1.0,2.0,65,0.00,,SKC,0.00,0.00,VWS V14.01,2013-02-10 08:20:00,
2013-02-10 03:22:00,28.5,17.5,30.43,NNW,346,1.0,2.0,63,0.00,,SKC,0.00,0.00,VWS V14.01,2013-02-10 08:22:00,
2013-02-10 03:25:00,28.3,18.1,30.43,NNW,346,0.0,2.0,65,0.00,,SKC,0.00,0.00,VWS V14.01,2013-02-10 08:25:00,
2013-02-10 03:27:00,28.3,18.1,30.43,NNW,346,0.0,2.0,65,0.00,,SKC,0.00,0.00,VWS V14.01,2013-02-10 08:27:00,
2013-02-10 03:30:00,28.2,18.0,30.43,NNW,346,0.0,2.0,65,0.00,,SKC,0.00,0.00,VWS V14.01,2013-02-10 08:30:00,
2013-02-10 03:31:00,28.2,18.0,30.43,NNW,346,0.0,2.0,65,0.00,,SKC,0.00,0.00,VWS V14.01,2013-02-10 08:31:00,
2013-02-10 03:32:00,28.1,17.9,30.43,NNW,346,0.0,0.0,65,0.00,,SKC,0.00,0.00,VWS V14.01,2013-02-10 08:32:00,
2013-02-10 03:36:00,28.0,18.1,30.43,NNW,346,1.0,1.0,66,0.00,,SKC,0.00,0.00,VWS V14.01,2013-02-10 08:36:00,
2013-02-10 03:37:00,28.0,17.8,30.43,NNW,346,1.0,2.0,65,0.00,,SKC,0.00,0.00,VWS V14.01,2013-02-10 08:37:00,
2013-02-10 03:38:00,28.0,17.8,30.43,NNW,346,0.0,2.0,65,0.00,,SKC,0.00,0.00,VWS V14.01,2013-02-10 08:38:00,
2013-02-10 03:41:00,28.1,17.9,30.43,NNW,346,2.0,3.0,65,0.00,,SKC,0.00,0.00,VWS V14.01,2013-02-10 08:41:00,
2013-02-10 03:42:00,28.1,17.9,30.43,NNW,346,1.0,3.0,65,0.00,,SKC,0.00,0.00,VWS V14.01,2013-02-10 08:42:00,
2013-02-10 03:43:00,28.1,17.9,30.43,NNW,346,1.0,3.0,65,0.00,,SKC,0.00,0.00,VWS V14.01,2013-02-10 08:43:00,
2013-02-10 03:46:00,28.0,17.8,30.43,NNW,346,2.0,3.0,65,0.00,,SKC,0.00,0.00,VWS V14.01,2013-02-10 08:46:00,
2013-02-10 03:47:00,28.0,17.8,30.43,NNW,346,3.0,3.0,65,0.00,,SKC,0.00,0.00,VWS V14.01,2013-02-10 08:47:00,
2013-02-10 03:48:00,28.0,17.4,30.43,NNW,346,3.0,3.0,64,0.00,,SKC,0.00,0.00,VWS V14.01,2013-02-10 08:48:00,
2013-02-10 03:51:00,27.9,16.6,30.43,NNW,346,1.0,3.0,62,0.00,,SKC,0.00,0.00,VWS V14.01,2013-02-10 08:51:00,
2013-02-10 03:52:00,27.9,16.6,30.43,NNW,346,2.0,3.0,62,0.00,,SKC,0.00,0.00,VWS V14.01,2013-02-10 08:52:00,
2013-02-10 03:53:00,27.9,16.2,30.43,NNW,346,3.0,3.0,61,0.00,,SKC,0.00,0.00,VWS V14.01,2013-02-10 08:53:00,
2013-02-10 03:56:00,28.0,16.3,30.43,NNW,346,2.0,3.0,61,0.00,,SKC,0.00,0.00,VWS V14.01,2013-02-10 08:56:00,
2013-02-10 03:57:00,28.0,16.3,30.43,NNW,346,1.0,3.0,61,0.00,,SKC,0.00,0.00,VWS V14.01,2013-02-10 08:57:00,
2013-02-10 03:58:00,28.1,16.4,30.43,NNW,346,0.0,3.0,61,0.00,,SKC,0.00,0.00,VWS V14.01,2013-02-10 08:58:00,
2013-02-10 04:02:00,28.1,16.4,30.43,NNW,346,2.0,2.0,61,0.00,,SKC,0.00,0.00,VWS V14.01,2013-02-10 09:02:00,
2013-02-10 04:03:00,28.0,16.7,30.43,NNW,346,2.0,3.0,62,0.00,,SKC,0.00,0.00,VWS V14.01,2013-02-10 09:03:00,
2013-02-10 04:07:00,27.9,16.2,30.43,NNW,346,2.0,3.0,61,0.00,,SKC,0.00,0.00,VWS V14.01,2013-02-10 09:07:00,
2013-02-10 04:08:00,27.8,16.1,30.43,NNW,346,3.0,4.0,61,0.00,,SKC,0.00,0.00,VWS V14.01,2013-02-10 09:08:00,
2013-02-10 04:12:00,27.8,16.5,30.43,NNW,346,1.0,4.0,62,0.00,,SKC,0.00,0.00,VWS V14.01,2013-02-10 09:12:00,
2013-02-10 04:14:00,27.8,16.5,30.43,NNW,346,2.0,4.0,62,0.00,,SKC,0.00,0.00,VWS V14.01,2013-02-10 09:14:00,
2013-02-10 04:17:00,27.8,15.7,30.43,NNW,346,3.0,4.0,60,0.00,,SKC,0.00,0.00,VWS V14.01,2013-02-10 09:17:00,
2013-02-10 04:19:00,27.8,15.4,30.43,NNW,346,2.0,4.0,59,0.00,,SKC,0.00,0.00,VWS V14.01,2013-02-10 09:19:00,
2013-02-10 04:22:00,28.0,15.5,30.43,NNW,346,2.0,4.0,59,0.00,,SKC,0.00,0.00,VWS V14.01,2013-02-10 09:22:00,
2013-02-10 04:24:00,28.1,15.2,30.44,NNW,346,3.0,4.0,58,0.00,,SKC,0.00,0.00,VWS V14.01,2013-02-10 09:24:00,
2013-02-10 04:27:00,28.4,15.5,30.44,NNW,346,2.0,4.0,58,0.00,,SKC,0.00,0.00,VWS V14.01,2013-02-10 09:27:00,
2013-02-10 04:28:00,28.4,15.5,30.44,NNW,346,1.0,4.0,58,0.00,,SKC,0.00,0.00,VWS V14.01,2013-02-10 09:28:00,
2013-02-10 04:29:00,28.6,15.3,30.44,NNW,346,2.0,4.0,57,0.00,,SKC,0.00,0.00,VWS V14.01,2013-02-10 09:29:00,
2013-02-10 04:32:00,28.8,15.5,30.44,NNW,346,0.0,2.0,57,0.00,,SKC,0.00,0.00,VWS V14.01,2013-02-10 09:32:00,
2013-02-10 04:33:00,28.8,15.5,30.44,NNW,346,2.0,2.0,57,0.00,,SKC,0.00,0.00,VWS V14.01,2013-02-10 09:33:00,
2013-02-10 04:34:00,28.9,15.6,30.44,NNW,346,2.0,3.0,57,0.00,,SKC,0.00,0.00,VWS V14.01,2013-02-10 09:34:00,
2013-02-10 04:37:00,29.1,15.4,30.44,NNW,346,0.0,3.0,56,0.00,,SKC,0.00,0.00,VWS V14.01,2013-02-10 09:37:00,
2013-02-10 04:38:00,29.1,15.4,30.44,NNW,346,0.0,3.0,56,0.00,,SKC,0.00,0.00,VWS V14.01,2013-02-10 09:38:00,
2013-02-10 04:39:00,29.2,15.5,30.44,NNW,346,2.0,3.0,56,0.00,,SKC,0.00,0.00,VWS V14.01,2013-02-10 09:39:00,
2013-02-10 04:43:00,29.5,15.3,30.44,NNW,346,2.0,3.0,55,0.00,,SKC,0.00,0.00,VWS V14.01,2013-02-10 09:43:00,
2013-02-10 04:44:00,29.7,15.1,30.44,North,351,0.0,3.0,54,0.00,,SKC,0.00,0.00,VWS V14.01,2013-02-10 09:44:00,
2013-02-10 04:48:00,29.9,14.9,30.44,North,351,0.0,3.0,53,0.00,,SKC,0.00,0.00,VWS V14.01,2013-02-10 09:48:00,
2013-02-10 04:49:00,29.9,14.9,30.44,North,351,0.0,3.0,53,0.00,,SKC,0.00,0.00,VWS V14.01,2013-02-10 09:49:00,
2013-02-10 04:53:00,30.1,15.1,30.44,North,351,0.0,3.0,53,0.00,,SKC,0.00,0.00,VWS V14.01,2013-02-10 09:53:00,
2013-02-10 04:54:00,30.1,15.1,30.44,North,351,0.0,3.0,53,0.00,,SKC,0.00,0.00,VWS V14.01,2013-02-10 09:54:00,
2013-02-10 04:55:00,30.1,15.1,30.44,North,351,1.0,3.0,53,0.00,,SKC,0.00,0.00,VWS V14.01,2013-02-10 09:55:00,
2013-02-10 04:58:00,30.2,15.1,30.44,North,351,2.0,3.0,53,0.00,,SKC,0.00,0.00,VWS V14.01,2013-02-10 09:58:00,
2013-02-10 04:59:00,30.2,15.1,30.44,North,351,2.0,3.0,53,0.00,,SKC,0.00,0.00,VWS V14.01,2013-02-10 09:59:00,
2013-02-10 05:00:00,30.3,14.8,30.44,North,351,2.0,3.0,52,0.00,,SKC,0.00,0.00,VWS V14.01,2013-02-10 10:00:00,
2013-02-10 05:03:00,30.4,14.9,30.44,North,351,1.0,1.0,52,0.00,,SKC,0.00,0.00,VWS V14.01,2013-02-10 10:03:00,
2013-02-10 05:04:00,30.4,14.9,30.44,North,351,2.0,2.0,52,0.00,,SKC,0.00,0.00,VWS V14.01,2013-02-10 10:04:00,
2013-02-10 05:05:00,30.5,15.0,30.44,North,351,1.0,2.0,52,0.00,,SKC,0.00,0.00,VWS V14.01,2013-02-10 10:05:00,
2013-02-10 05:08:00,30.6,15.1,30.45,North,351,0.0,2.0,52,0.00,,SKC,0.00,0.00,VWS V14.01,2013-02-10 10:08:00,
2013-02-10 05:09:00,30.6,15.1,30.45,North,351,0.0,2.0,52,0.00,,SKC,0.00,0.00,VWS V14.01,2013-02-10 10:09:00,
2013-02-10 05:10:00,30.6,15.1,30.45,North,351,0.0,2.0,52,0.00,,SKC,0.00,0.00,VWS V14.01,2013-02-10 10:10:00,
2013-02-10 05:13:00,30.6,15.1,30.45,North,351,1.0,2.0,52,0.00,,SKC,0.00,0.00,VWS V14.01,2013-02-10 10:13:00,
2013-02-10 05:14:00,30.6,15.1,30.45,North,351,0.0,2.0,52,0.00,,SKC,0.00,0.00,VWS V14.01,2013-02-10 10:14:00,
2013-02-10 05:15:00,30.6,15.1,30.45,North,351,0.0,2.0,52,0.00,,SKC,0.00,0.00,VWS V14.01,2013-02-10 10:15:00,
2013-02-10 05:19:00,30.5,15.0,30.45,North,351,1.0,2.0,52,0.00,,SKC,0.00,0.00,VWS V14.01,2013-02-10 10:19:00,
2013-02-10 05:20:00,30.5,15.0,30.45,North,351,2.0,3.0,52,0.00,,SKC,0.00,0.00,VWS V14.01,2013-02-10 10:20:00,
2013-02-10 05:24:00,30.5,15.0,30.45,North,351,0.0,3.0,52,0.00,,SKC,0.00,0.00,VWS V14.01,2013-02-10 10:24:00,
2013-02-10 05:25:00,30.5,15.0,30.45,North,351,0.0,3.0,52,0.00,,SKC,0.00,0.00,VWS V14.01,2013-02-10 10:25:00,
2013-02-10 05:29:00,30.6,15.1,30.45,North,351,1.0,3.0,52,0.00,,SKC,0.00,0.00,VWS V14.01,2013-02-10 10:29:00,
2013-02-10 05:30:00,30.6,15.1,30.45,North,351,0.0,3.0,52,0.00,,SKC,0.00,0.00,VWS V14.01,2013-02-10 10:30:00,
2013-02-10 05:34:00,30.6,15.1,30.45,North,351,2.0,3.0,52,0.00,,SKC,0.00,0.00,VWS V14.01,2013-02-10 10:34:00,
2013-02-10 05:35:00,30.6,15.1,30.45,North,351,2.0,3.0,52,0.00,,SKC,0.00,0.00,VWS V14.01,2013-02-10 10:35:00,
2013-02-10 05:39:00,30.6,15.1,30.45,North,351,2.0,3.0,52,0.00,,SKC,0.00,0.00,VWS V14.01,2013-02-10 10:39:00,
2013-02-10 05:40:00,30.6,15.1,30.45,North,351,1.0,3.0,52,0.00,,SKC,0.00,0.00,VWS V14.01,2013-02-10 10:40:00,
2013-02-10 05:41:00,30.6,15.1,30.45,North,351,1.0,3.0,52,0.00,,SKC,0.00,0.00,VWS V14.01,2013-02-10 10:41:00,
2013-02-10 05:44:00,30.4,15.3,30.45,North,351,1.0,3.0,53,0.00,,SKC,0.00,0.00,VWS V14.01,2013-02-10 10:44:00,
2013-02-10 05:45:00,30.4,15.3,30.45,North,351,2.0,3.0,53,0.00,,SKC,0.00,0.00,VWS V14.01,2013-02-10 10:45:00,
2013-02-10 05:46:00,30.4,15.3,30.45,North,351,3.0,3.0,53,0.00,,SKC,0.00,0.00,VWS V14.01,2013-02-10 10:46:00,
2013-02-10 05:49:00,30.3,15.2,30.45,North,351,2.0,3.0,53,0.00,,SKC,0.00,0.00,VWS V14.01,2013-02-10 10:49:00,
2013-02-10 05:50:00,30.3,15.2,30.45,North,351,2.0,3.0,53,0.00,,SKC,0.00,0.00,VWS V14.01,2013-02-10 10:50:00,
2013-02-10 05:51:00,30.3,15.2,30.45,North,351,1.0,3.0,53,0.00,,SKC,0.00,0.00,VWS V14.01,2013-02-10 10:51:00,
2013-02-10 05:55:00,30.2,15.6,30.45,North,351,1.0,3.0,54,0.00,,SKC,0.00,0.00,VWS V14.01,2013-02-10 10:55:00,
2013-02-10 05:56:00,30.1,15.5,30.45,North,351,1.0,3.0,54,0.00,,SKC,0.00,0.00,VWS V14.01,2013-02-10 10:56:00,
2013-02-10 05:57:00,30.2,15.1,30.45,North,351,1.0,3.0,53,0.00,,SKC,0.00,0.00,VWS V14.01,2013-02-10 10:57:00,
2013-02-10 06:00:00,30.1,15.1,30.46,North,351,1.0,3.0,53,0.00,,SKC,0.00,0.00,VWS V14.01,2013-02-10 11:00:00,
2013-02-10 06:01:00,30.2,15.1,30.46,North,351,1.0,1.0,53,0.00,,SKC,0.00,0.00,VWS V14.01,2013-02-10 11:01:00,
2013-02-10 06:02:00,30.2,15.1,30.46,North,351,0.0,1.0,53,0.00,,SKC,0.00,0.00,VWS V14.01,2013-02-10 11:02:00,
2013-02-10 06:05:00,30.2,15.1,30.45,North,351,1.0,4.0,53,0.00,,SKC,0.00,0.00,VWS V14.01,2013-02-10 11:05:00,
2013-02-10 06:06:00,30.3,15.2,30.46,North,351,2.0,4.0,53,0.00,,SKC,0.00,0.00,VWS V14.01,2013-02-10 11:06:00,
2013-02-10 06:07:00,30.2,15.1,30.46,North,351,2.0,4.0,53,0.00,,SKC,0.00,0.00,VWS V14.01,2013-02-10 11:07:00,
2013-02-10 06:11:00,30.3,14.8,30.46,North,355,2.0,4.0,52,0.00,,SKC,0.00,0.00,VWS V14.01,2013-02-10 11:11:00,
2013-02-10 06:12:00,30.4,14.9,30.46,North,355,2.0,4.0,52,0.00,,SKC,0.00,0.00,VWS V14.01,2013-02-10 11:12:00,
2013-02-10 06:16:00,30.5,15.0,30.46,North,360,2.0,4.0,52,0.00,,SKC,0.00,0.00,VWS V14.01,2013-02-10 11:16:00,
2013-02-10 06:17:00,30.6,15.1,30.46,North,360,1.0,4.0,52,0.00,,SKC,0.00,0.00,VWS V14.01,2013-02-10 11:17:00,
2013-02-10 06:21:00,30.7,14.7,30.46,North,360,0.0,4.0,51,0.00,,SKC,0.00,0.00,VWS V14.01,2013-02-10 11:21:00,
2013-02-10 06:22:00,30.7,14.7,30.46,North,360,0.0,4.0,51,0.00,,SKC,0.00,0.00,VWS V14.01,2013-02-10 11:22:00,
2013-02-10 06:26:00,30.8,14.8,30.46,NNE,26,1.0,4.0,51,0.00,,SKC,0.00,0.00,VWS V14.01,2013-02-10 11:26:00,
2013-02-10 06:27:00,30.9,14.9,30.47,NNE,26,0.0,4.0,51,0.00,,SKC,0.00,0.00,VWS V14.01,2013-02-10 11:27:00,
2013-02-10 06:31:00,31.0,15.0,30.46,NNE,26,0.0,2.0,51,0.00,,SKC,0.00,0.00,VWS V14.01,2013-02-10 11:31:00,
2013-02-10 06:32:00,30.9,14.9,30.47,NNE,26,1.0,2.0,51,0.00,,SKC,0.00,0.00,VWS V14.01,2013-02-10 11:32:00,
2013-02-10 06:36:00,31.0,15.0,30.47,NE,44,2.0,6.0,51,0.00,,SKC,0.00,0.00,VWS V14.01,2013-02-10 11:36:00,
2013-02-10 06:37:00,31.0,15.0,30.47,NE,44,1.0,6.0,51,0.00,,SKC,0.00,0.00,VWS V14.01,2013-02-10 11:37:00,
2013-02-10 06:38:00,31.0,15.0,30.47,NE,44,1.0,6.0,51,0.00,,SKC,0.00,0.00,VWS V14.01,2013-02-10 11:38:00,
2013-02-10 06:41:00,31.0,15.0,30.47,NE,44,2.0,6.0,51,0.00,,SKC,0.00,0.00,VWS V14.01,2013-02-10 11:41:00,
2013-02-10 06:42:00,31.0,15.0,30.47,NE,44,2.0,6.0,51,0.00,,SKC,0.00,0.00,VWS V14.01,2013-02-10 11:42:00,
2013-02-10 06:43:00,31.0,15.0,30.47,NE,44,2.0,6.0,51,0.00,,SKC,0.00,0.00,VWS V14.01,2013-02-10 11:43:00,
2013-02-10 06:46:00,31.0,15.0,30.47,NE,44,1.0,6.0,51,0.00,,SKC,0.00,0.00,VWS V14.01,2013-02-10 11:46:00,
2013-02-10 06:48:00,31.0,15.0,30.47,NE,44,1.0,6.0,51,0.00,,SKC,0.00,0.00,VWS V14.01,2013-02-10 11:48:00,
2013-02-10 06:52:00,31.1,15.1,30.48,NE,44,0.0,6.0,51,0.00,,SKC,0.00,0.00,VWS V14.01,2013-02-10 11:52:00,
2013-02-10 06:53:00,31.1,15.5,30.48,NE,44,1.0,6.0,52,0.00,,SKC,0.00,0.00,VWS V14.01,2013-02-10 11:53:00,
2013-02-10 06:57:00,31.0,15.0,30.48,NE,44,1.0,6.0,51,0.00,,SKC,0.00,0.00,VWS V14.01,2013-02-10 11:57:00,
2013-02-10 06:58:00,31.0,15.0,30.48,NE,44,1.0,6.0,51,0.00,,SKC,0.00,0.00,VWS V14.01,2013-02-10 11:58:00,
2013-02-10 07:02:00,31.0,15.4,30.48,NE,44,1.0,1.0,52,0.00,,SKC,0.00,0.00,VWS V14.01,2013-02-10 12:02:00,
2013-02-10 07:03:00,31.0,15.4,30.48,NE,44,0.0,1.0,52,0.00,,SKC,0.00,0.00,VWS V14.01,2013-02-10 12:03:00,
2013-02-10 07:04:00,30.9,15.4,30.48,NE,44,1.0,1.0,52,0.00,,SKC,0.00,0.00,VWS V14.01,2013-02-10 12:04:00,
2013-02-10 07:07:00,30.8,15.7,30.48,NE,44,0.0,1.0,53,0.00,,SKC,0.00,0.00,VWS V14.01,2013-02-10 12:07:00,
2013-02-10 07:08:00,30.8,15.3,30.48,NE,44,1.0,1.0,52,0.00,,SKC,0.00,0.00,VWS V14.01,2013-02-10 12:08:00,
2013-02-10 07:09:00,30.8,15.7,30.48,NE,44,0.0,1.0,53,0.00,,SKC,0.00,0.00,VWS V14.01,2013-02-10 12:09:00,
2013-02-10 07:13:00,30.8,15.7,30.49,NE,44,0.0,1.0,53,0.00,,SKC,0.00,0.00,VWS V14.01,2013-02-10 12:13:00,
2013-02-10 07:14:00,30.8,15.3,30.49,NE,44,0.0,1.0,52,0.00,,SKC,0.00,0.00,VWS V14.01,2013-02-10 12:14:00,
2013-02-10 07:18:00,30.7,15.2,30.49,NE,44,0.0,1.0,52,0.00,,SKC,0.00,5.00,VWS V14.01,2013-02-10 12:18:00,
2013-02-10 07:19:00,30.7,15.2,30.49,NE,44,0.0,1.0,52,0.00,,SKC,0.00,5.00,VWS V14.01,2013-02-10 12:19:00,
2013-02-10 07:23:00,30.7,15.2,30.49,NE,44,1.0,1.0,52,0.00,,SKC,0.00,7.00,VWS V14.01,2013-02-10 12:23:00,
2013-02-10 07:24:00,30.7,15.2,30.49,NE,44,1.0,1.0,52,0.00,,SKC,0.00,9.00,VWS V14.01,2013-02-10 12:24:00,
2013-02-10 07:28:00,30.8,15.3,30.50,NE,44,0.0,1.0,52,0.00,,SKC,0.00,12.00,VWS V14.01,2013-02-10 12:28:00,
2013-02-10 07:29:00,30.8,15.3,30.50,NE,44,0.0,1.0,52,0.00,,SKC,0.00,12.00,VWS V14.01,2013-02-10 12:29:00,
2013-02-10 07:30:00,30.8,15.3,30.50,NE,44,1.0,1.0,52,0.00,,SKC,0.00,14.00,VWS V14.01,2013-02-10 12:30:00,
2013-02-10 07:33:00,30.8,15.3,30.50,NE,44,1.0,2.0,52,0.00,,SKC,0.00,16.00,VWS V14.01,2013-02-10 12:33:00,
2013-02-10 07:34:00,30.8,15.3,30.50,NE,44,0.0,2.0,52,0.00,,SKC,0.00,18.00,VWS V14.01,2013-02-10 12:34:00,
2013-02-10 07:35:00,30.8,15.3,30.50,NE,44,0.0,2.0,52,0.00,,SKC,0.00,18.00,VWS V14.01,2013-02-10 12:35:00,
2013-02-10 07:38:00,30.9,15.8,30.50,NE,44,1.0,2.0,53,0.00,,SKC,0.00,21.00,VWS V14.01,2013-02-10 12:38:00,
2013-02-10 07:40:00,30.8,15.7,30.50,NE,44,2.0,2.0,53,0.00,,SKC,0.00,23.00,VWS V14.01,2013-02-10 12:40:00,
2013-02-10 07:41:00,30.9,15.8,30.50,NE,44,2.0,3.0,53,0.00,,SKC,0.00,25.00,VWS V14.01,2013-02-10 12:41:00,
2013-02-10 07:43:00,30.9,15.8,30.50,NE,44,0.0,3.0,53,0.00,,SKC,0.00,30.00,VWS V14.01,2013-02-10 12:43:00,
2013-02-10 07:45:00,31.0,16.3,30.50,NE,44,0.0,3.0,54,0.00,,SKC,0.00,32.00,VWS V14.01,2013-02-10 12:45:00,
2013-02-10 07:46:00,31.0,15.9,30.50,NE,44,0.0,3.0,53,0.00,,SKC,0.00,33.00,VWS V14.01,2013-02-10 12:46:00,
2013-02-10 07:48:00,31.0,15.9,30.50,NE,44,0.0,3.0,53,0.00,,SKC,0.00,37.00,VWS V14.01,2013-02-10 12:48:00,
2013-02-10 07:50:00,31.0,16.3,30.50,NE,44,1.0,3.0,54,0.00,,SKC,0.00,39.00,VWS V14.01,2013-02-10 12:50:00,
2013-02-10 07:51:00,31.0,16.3,30.50,NE,44,1.0,3.0,54,0.00,,SKC,0.00,40.00,VWS V14.01,2013-02-10 12:51:00,
2013-02-10 07:53:00,31.0,15.9,30.50,NE,44,0.0,3.0,53,0.00,,SKC,0.00,46.00,VWS V14.01,2013-02-10 12:53:00,
2013-02-10 07:55:00,31.0,15.9,30.50,NE,44,0.0,3.0,53,0.00,,SKC,0.00,47.00,VWS V14.01,2013-02-10 12:55:00,
2013-02-10 07:56:00,31.1,16.0,30.51,NE,44,0.0,3.0,53,0.00,,SKC,0.00,47.00,VWS V14.01,2013-02-10 12:56:00,
2013-02-10 07:58:00,31.1,16.0,30.51,NE,44,0.0,3.0,53,0.00,,SKC,0.00,49.00,VWS V14.01,2013-02-10 12:58:00,
2013-02-10 08:00:00,31.1,16.0,30.51,NE,44,0.0,3.0,53,0.00,,SKC,0.00,49.00,VWS V14.01,2013-02-10 13:00:00,
2013-02-10 08:01:00,31.1,16.0,30.51,NE,44,0.0,3.0,53,0.00,,SKC,0.00,49.00,VWS V14.01,2013-02-10 13:01:00,
2013-02-10 08:04:00,31.2,15.6,30.50,NE,44,0.0,1.0,52,0.00,,SKC,0.00,46.00,VWS V14.01,2013-02-10 13:04:00,
2013-02-10 08:05:00,31.3,15.3,30.50,NE,44,0.0,1.0,51,0.00,,SKC,0.00,46.00,VWS V14.01,2013-02-10 13:05:00,
2013-02-10 08:06:00,31.3,15.3,30.50,NE,44,0.0,1.0,51,0.00,,SKC,0.00,47.00,VWS V14.01,2013-02-10 13:06:00,
2013-02-10 08:09:00,31.4,16.3,30.51,NE,44,1.0,2.0,53,0.00,,SKC,0.00,54.00,VWS V14.01,2013-02-10 13:09:00,
2013-02-10 08:10:00,31.4,15.4,30.51,NE,44,0.0,2.0,51,0.00,,SKC,0.00,56.00,VWS V14.01,2013-02-10 13:10:00,
2013-02-10 08:11:00,31.5,15.5,30.51,NE,44,0.0,2.0,51,0.00,,SKC,0.00,60.00,VWS V14.01,2013-02-10 13:11:00,
2013-02-10 08:14:00,31.6,15.6,30.51,NE,44,0.0,2.0,51,0.00,,SKC,0.00,70.00,VWS V14.01,2013-02-10 13:14:00,
2013-02-10 08:15:00,31.6,15.6,30.51,NE,44,0.0,2.0,51,0.00,,SKC,0.00,72.00,VWS V14.01,2013-02-10 13:15:00,
2013-02-10 08:16:00,31.7,15.7,30.51,NE,44,0.0,2.0,51,0.00,,SKC,0.00,76.00,VWS V14.01,2013-02-10 13:16:00,
2013-02-10 08:17:00,31.7,15.7,30.51,NE,44,0.0,2.0,51,0.00,,SKC,0.00,76.00,VWS V14.01,2013-02-10 13:17:00,
2013-02-10 08:19:00,31.7,15.7,30.51,NE,44,0.0,2.0,51,0.00,,SKC,0.00,76.00,VWS V14.01,2013-02-10 13:19:00,
2013-02-10 08:20:00,31.8,15.8,30.51,NE,44,0.0,2.0,51,0.00,,SKC,0.00,79.00,VWS V14.01,2013-02-10 13:20:00,
2013-02-10 08:22:00,31.9,15.4,30.51,NE,44,0.0,2.0,50,0.00,,SKC,0.00,81.00,VWS V14.01,2013-02-10 13:22:00,
2013-02-10 08:24:00,32.0,15.5,30.51,NE,44,0.0,2.0,50,0.00,,SKC,0.00,84.00,VWS V14.01,2013-02-10 13:24:00,
2013-02-10 08:25:00,32.1,16.0,30.51,NE,44,1.0,2.0,51,0.00,,SKC,0.00,86.00,VWS V14.01,2013-02-10 13:25:00,
2013-02-10 08:27:00,32.1,15.6,30.51,NE,44,0.0,2.0,50,0.00,,SKC,0.00,90.00,VWS V14.01,2013-02-10 13:27:00,
2013-02-10 08:29:00,32.2,16.1,30.51,NE,44,2.0,2.0,51,0.00,,SKC,0.00,90.00,VWS V14.01,2013-02-10 13:29:00,
2013-02-10 08:30:00,32.3,15.8,30.51,NE,44,0.0,2.0,50,0.00,,SKC,0.00,90.00,VWS V14.01,2013-02-10 13:30:00,
2013-02-10 08:32:00,32.3,16.2,30.51,NE,44,0.0,1.0,51,0.00,,SKC,0.00,88.00,VWS V14.01,2013-02-10 13:32:00,
2013-02-10 08:34:00,32.4,15.9,30.51,NE,44,2.0,3.0,50,0.00,,SKC,0.00,81.00,VWS V14.01,2013-02-10 13:34:00,
2013-02-10 08:35:00,32.5,15.9,30.51,NE,44,2.0,3.0,50,0.00,,SKC,0.00,79.00,VWS V14.01,2013-02-10 13:35:00,
2013-02-10 08:37:00,32.5,15.9,30.51,NE,44,1.0,3.0,50,0.00,,SKC,0.00,79.00,VWS V14.01,2013-02-10 13:37:00,
2013-02-10 08:40:00,32.6,16.0,30.51,NE,44,0.0,3.0,50,0.00,,SKC,0.00,79.00,VWS V14.01,2013-02-10 13:40:00,
2013-02-10 08:41:00,32.6,16.0,30.51,NE,44,1.0,3.0,50,0.00,,SKC,0.00,81.00,VWS V14.01,2013-02-10 13:41:00,
2013-02-10 08:42:00,32.7,16.1,30.51,NE,44,0.0,3.0,50,0.00,,SKC,0.00,83.00,VWS V14.01,2013-02-10 13:42:00,
2013-02-10 08:45:00,32.8,17.1,30.51,NE,44,0.0,3.0,52,0.00,,SKC,0.00,91.00,VWS V14.01,2013-02-10 13:45:00,
2013-02-10 08:46:00,32.8,17.1,30.51,NE,44,0.0,3.0,52,0.00,,SKC,0.00,93.00,VWS V14.01,2013-02-10 13:46:00,
2013-02-10 08:47:00,32.8,17.1,30.51,NE,44,0.0,3.0,52,0.00,,SKC,0.00,97.00,VWS V14.01,2013-02-10 13:47:00,
2013-02-10 08:48:00,32.9,17.2,30.51,NE,44,0.0,3.0,52,0.00,,SKC,0.00,98.00,VWS V14.01,2013-02-10 13:48:00,
2013-02-10 08:51:00,32.9,17.2,30.51,NE,44,0.0,3.0,52,0.00,,SKC,0.00,111.00,VWS V14.01,2013-02-10 13:51:00,
2013-02-10 08:53:00,33.0,17.3,30.51,NE,44,0.0,3.0,52,0.00,,SKC,0.00,116.00,VWS V14.01,2013-02-10 13:53:00,
2013-02-10 08:56:00,33.1,17.4,30.51,NE,44,0.0,3.0,52,0.00,,SKC,0.00,128.00,VWS V14.01,2013-02-10 13:56:00,
2013-02-10 08:57:00,33.2,18.4,30.51,NE,44,2.0,3.0,54,0.00,,SKC,0.00,130.00,VWS V14.01,2013-02-10 13:57:00,
2013-02-10 08:58:00,33.2,17.5,30.51,NE,44,0.0,3.0,52,0.00,,SKC,0.00,134.00,VWS V14.01,2013-02-10 13:58:00,
2013-02-10 09:01:00,33.3,16.7,30.51,NE,44,0.0,0.0,50,0.00,,SKC,0.00,153.00,VWS V14.01,2013-02-10 14:01:00,
2013-02-10 09:02:00,33.4,17.2,30.51,NE,44,0.0,0.0,51,0.00,,SKC,0.00,155.00,VWS V14.01,2013-02-10 14:02:00,
2013-02-10 09:03:00,33.4,18.1,30.51,NE,44,0.0,0.0,53,0.00,,SKC,0.00,160.00,VWS V14.01,2013-02-10 14:03:00,
2013-02-10 09:06:00,33.6,17.9,30.51,NE,44,0.0,1.0,52,0.00,,SKC,0.00,171.00,VWS V14.01,2013-02-10 14:06:00,
2013-02-10 09:07:00,33.6,17.4,30.51,NE,44,1.0,1.0,51,0.00,,SKC,0.00,176.00,VWS V14.01,2013-02-10 14:07:00,
2013-02-10 09:08:00,33.7,17.5,30.51,NE,44,0.0,1.0,51,0.00,,SKC,0.00,179.00,VWS V14.01,2013-02-10 14:08:00,
2013-02-10 09:11:00,33.9,17.2,30.51,SE,134,2.0,4.0,50,0.00,,SKC,0.00,185.00,VWS V14.01,2013-02-10 14:11:00,
2013-02-10 09:12:00,34.0,17.3,30.51,SE,134,1.0,4.0,50,0.00,,SKC,0.00,190.00,VWS V14.01,2013-02-10 14:12:00,
2013-02-10 09:13:00,34.0,17.3,30.51,SE,134,2.0,5.0,50,0.00,,SKC,0.00,202.00,VWS V14.01,2013-02-10 14:13:00,
2013-02-10 09:16:00,34.1,17.0,30.51,SE,136,0.0,5.0,49,0.00,,SKC,0.00,221.00,VWS V14.01,2013-02-10 14:16:00,
2013-02-10 09:17:00,34.1,17.9,30.51,SE,136,1.0,5.0,51,0.00,,SKC,0.00,251.00,VWS V14.01,2013-02-10 14:17:00,
2013-02-10 09:18:00,34.2,18.4,30.51,SE,136,1.0,5.0,52,0.00,,SKC,0.00,269.00,VWS V14.01,2013-02-10 14:18:00,
2013-02-10 09:21:00,34.4,18.2,30.51,SE,136,1.0,5.0,51,0.00,,SKC,0.00,295.00,VWS V14.01,2013-02-10 14:21:00,
2013-02-10 09:22:00,34.4,18.2,30.51,SE,136,0.0,5.0,51,0.00,,SKC,0.00,301.00,VWS V14.01,2013-02-10 14:22:00,
2013-02-10 09:24:00,34.5,18.2,30.51,SE,135,3.0,5.0,51,0.00,,SKC,0.00,295.00,VWS V14.01,2013-02-10 14:24:00,
2013-02-10 09:27:00,34.7,18.0,30.51,ESE,110,4.0,5.0,50,0.00,,SKC,0.00,232.00,VWS V14.01,2013-02-10 14:27:00,
2013-02-10 09:29:00,34.7,17.5,30.51,ESE,109,1.0,5.0,49,0.00,,SKC,0.00,220.00,VWS V14.01,2013-02-10 14:29:00,
2013-02-10 09:32:00,34.9,18.6,30.51,SSE,159,4.0,4.0,51,0.00,,SKC,0.00,183.00,VWS V14.01,2013-02-10 14:32:00,
2013-02-10 09:34:00,34.9,17.7,30.51,South,190,1.0,5.0,49,0.00,,SKC,0.00,160.00,VWS V14.01,2013-02-10 14:34:00,
2013-02-10 09:37:00,34.6,16.9,30.51,SSE,153,3.0,6.0,48,0.00,,SKC,0.00,135.00,VWS V14.01,2013-02-10 14:37:00,
2013-02-10 09:39:00,34.4,17.7,30.50,SSE,153,6.0,7.0,50,0.00,,SKC,0.00,171.00,VWS V14.01,2013-02-10 14:39:00,
2013-02-10 09:40:00,34.4,17.7,30.50,SE,138,6.0,7.0,50,0.00,,SKC,0.00,171.00,VWS V14.01,2013-02-10 14:40:00,
2013-02-10 09:43:00,34.2,17.5,30.50,East,94,3.0,7.0,50,0.00,,SKC,0.00,200.00,VWS V14.01,2013-02-10 14:43:00,
2013-02-10 09:45:00,34.1,17.0,30.51,SE,126,5.0,8.0,49,0.00,,SKC,0.00,192.00,VWS V14.01,2013-02-10 14:45:00,
2013-02-10 09:48:00,34.1,17.0,30.51,SE,128,5.0,8.0,49,0.00,,SKC,0.00,141.00,VWS V14.01,2013-02-10 14:48:00,
2013-02-10 09:50:00,34.1,17.0,30.51,SE,124,5.0,8.0,49,0.00,,SKC,0.00,109.00,VWS V14.01,2013-02-10 14:50:00,
2013-02-10 09:53:00,34.0,17.3,30.51,ESE,123,1.0,8.0,50,0.00,,SKC,0.00,120.00,VWS V14.01,2013-02-10 14:53:00,
2013-02-10 09:55:00,34.0,17.3,30.51,ESE,123,1.0,8.0,50,0.00,,SKC,0.00,146.00,VWS V14.01,2013-02-10 14:55:00,
2013-02-10 09:58:00,34.1,17.9,30.51,SE,141,2.0,8.0,51,0.00,,SKC,0.00,181.00,VWS V14.01,2013-02-10 14:58:00,
2013-02-10 10:00:00,34.2,18.4,30.51,SE,142,3.0,8.0,52,0.00,,SKC,0.00,207.00,VWS V14.01,2013-02-10 15:00:00,
2013-02-10 10:01:00,34.3,18.5,30.51,SE,140,3.0,8.0,52,0.00,,SKC,0.00,206.00,VWS V14.01,2013-02-10 15:01:00,
2013-02-10 10:03:00,34.4,18.6,30.51,SE,140,3.0,3.0,52,0.00,,SKC,0.00,185.00,VWS V14.01,2013-02-10 15:03:00,
2013-02-10 10:05:00,34.5,19.1,30.51,SE,141,3.0,4.0,53,0.00,,SKC,0.00,155.00,VWS V14.01,2013-02-10 15:05:00,
2013-02-10 10:06:00,34.5,19.1,30.51,SSE,152,2.0,4.0,53,0.00,,SKC,0.00,156.00,VWS V14.01,2013-02-10 15:06:00,
2013-02-10 10:08:00,34.5,18.2,30.51,SE,140,6.0,6.0,51,0.00,,SKC,0.00,178.00,VWS V14.01,2013-02-10 15:08:00,
2013-02-10 10:11:00,34.4,18.6,30.51,SSE,153,3.0,6.0,52,0.00,,SKC,0.00,214.00,VWS V14.01,2013-02-10 15:11:00,
2013-02-10 10:13:00,34.4,18.2,30.51,SE,146,3.0,6.0,51,0.00,,SKC,0.00,236.00,VWS V14.01,2013-02-10 15:13:00,
2013-02-10 10:14:00,34.4,18.2,30.51,SE,146,3.0,6.0,51,0.00,,SKC,0.00,239.00,VWS V14.01,2013-02-10 15:14:00,
2013-02-10 10:16:00,34.4,18.6,30.51,SE,128,2.0,6.0,52,0.00,,SKC,0.00,234.00,VWS V14.01,2013-02-10 15:16:00,
2013-02-10 10:18:00,34.5,18.2,30.50,SE,128,4.0,6.0,51,0.00,,SKC,0.00,213.00,VWS V14.01,2013-02-10 15:18:00,
2013-02-10 10:19:00,34.5,18.7,30.50,SE,128,4.0,6.0,52,0.00,,SKC,0.00,204.00,VWS V14.01,2013-02-10 15:19:00,
2013-02-10 10:21:00,34.5,18.7,30.50,SE,128,2.0,6.0,52,0.00,,SKC,0.00,192.00,VWS V14.01,2013-02-10 15:21:00,
2013-02-10 10:23:00,34.5,18.7,30.50,SE,135,1.0,6.0,52,0.00,,SKC,0.00,206.00,VWS V14.01,2013-02-10 15:23:00,
2013-02-10 10:24:00,34.5,18.2,30.50,SE,136,2.0,6.0,51,0.00,,SKC,0.00,216.00,VWS V14.01,2013-02-10 15:24:00,
2013-02-10 10:26:00,34.5,18.7,30.50,SE,138,1.0,6.0,52,0.00,,SKC,0.00,232.00,VWS V14.01,2013-02-10 15:26:00,
2013-02-10 10:28:00,34.6,18.8,30.50,SSE,148,3.0,6.0,52,0.00,,SKC,0.00,248.00,VWS V14.01,2013-02-10 15:28:00,
2013-02-10 10:29:00,34.6,18.3,30.50,SSE,148,4.0,6.0,51,0.00,,SKC,0.00,251.00,VWS V14.01,2013-02-10 15:29:00,
2013-02-10 10:31:00,34.7,18.9,30.49,SE,138,2.0,4.0,52,0.00,,SKC,0.00,248.00,VWS V14.01,2013-02-10 15:31:00,
2013-02-10 10:32:00,34.7,18.4,30.49,SE,139,2.0,4.0,51,0.00,,SKC,0.00,239.00,VWS V14.01,2013-02-10 15:32:00,
2013-02-10 10:33:00,34.7,18.4,30.49,SE,146,2.0,5.0,51,0.00,,SKC,0.00,218.00,VWS V14.01,2013-02-10 15:33:00,
2013-02-10 10:34:00,34.7,18.4,30.49,South,170,2.0,5.0,51,0.00,,SKC,0.00,206.00,VWS V14.01,2013-02-10 15:34:00,
2013-02-10 10:36:00,34.7,18.9,30.49,South,171,1.0,5.0,52,0.00,,SKC,0.00,192.00,VWS V14.01,2013-02-10 15:36:00,
2013-02-10 10:37:00,34.7,18.9,30.49,South,170,2.0,5.0,52,0.00,,SKC,0.00,193.00,VWS V14.01,2013-02-10 15:37:00,
2013-02-10 10:39:00,34.7,18.9,30.49,SE,127,5.0,6.0,52,0.00,,SKC,0.00,200.00,VWS V14.01,2013-02-10 15:39:00,
2013-02-10 10:40:00,34.7,18.4,30.49,SE,128,2.0,6.0,51,0.00,,SKC,0.00,206.00,VWS V14.01,2013-02-10 15:40:00,
2013-02-10 10:41:00,34.7,18.4,30.49,SE,134,2.0,6.0,51,0.00,,SKC,0.00,216.00,VWS V14.01,2013-02-10 15:41:00,
2013-02-10 10:42:00,34.7,18.9,30.50,SE,134,3.0,6.0,52,0.00,,SKC,0.00,221.00,VWS V14.01,2013-02-10 15:42:00,
2013-02-10 10:44:00,34.7,18.9,30.49,SSW,199,6.0,6.0,52,0.00,,SKC,0.00,230.00,VWS V14.01,2013-02-10 15:44:00,
2013-02-10 10:45:00,34.6,18.3,30.49,SW,215,4.0,6.0,51,0.00,,SKC,0.00,237.00,VWS V14.01,2013-02-10 15:45:00,
2013-02-10 10:46:00,34.6,18.8,30.50,SSE,167,0.0,6.0,52,0.00,,SKC,0.00,253.00,VWS V14.01,2013-02-10 15:46:00,
2013-02-10 10:47:00,34.6,19.2,30.50,SSW,192,3.0,6.0,53,0.00,,SKC,0.00,262.00,VWS V14.01,2013-02-10 15:47:00,
2013-02-10 10:49:00,34.8,19.4,30.50,SSW,192,4.0,6.0,53,0.00,,SKC,0.00,267.00,VWS V14.01,2013-02-10 15:49:00,
2013-02-10 10:50:00,34.8,19.4,30.50,SSW,213,1.0,6.0,53,0.00,,SKC,0.00,267.00,VWS V14.01,2013-02-10 15:50:00,
2013-02-10 10:51:00,35.0,19.6,30.50,SSW,213,2.0,6.0,53,0.00,,SKC,0.00,257.00,VWS V14.01,2013-02-10 15:51:00,
2013-02-10 10:52:00,35.0,19.2,30.50,SSW,213,0.0,6.0,52,0.00,,SKC,0.00,248.00,VWS V14.01,2013-02-10 15:52:00,
2013-02-10 10:54:00,35.2,18.9,30.50,SE,142,2.0,7.0,51,0.00,,SKC,0.00,229.00,VWS V14.01,2013-02-10 15:54:00,
2013-02-10 10:55:00,35.2,18.9,30.50,SE,142,3.0,7.0,51,0.00,,SKC,0.00,229.00,VWS V14.01,2013-02-10 15:55:00,
2013-02-10 10:57:00,35.2,18.9,30.50,SSE,152,2.0,7.0,51,0.00,,SKC,0.00,216.00,VWS V14.01,2013-02-10 15:57:00,
2013-02-10 10:59:00,35.2,18.9,30.50,SSE,163,1.0,7.0,51,0.00,,SKC,0.00,200.00,VWS V14.01,2013-02-10 15:59:00,
2013-02-10 11:00:00,35.2,18.4,30.50,SSE,163,0.0,7.0,50,0.00,,SKC,0.00,211.00,VWS V14.01,2013-02-10 16:00:00,
2013-02-10 11:02:00,35.2,18.4,30.50,SE,142,3.0,5.0,50,0.00,,SKC,0.00,264.00,VWS V14.01,2013-02-10 16:02:00,
2013-02-10 11:04:00,35.2,18.4,30.50,SSW,213,2.0,9.0,50,0.00,,SKC,0.00,394.00,VWS V14.01,2013-02-10 16:04:00,
2013-02-10 11:05:00,35.3,18.5,30.50,South,190,4.0,9.0,50,0.00,,SKC,0.00,429.00,VWS V14.01,2013-02-10 16:05:00,
2013-02-10 11:07:00,35.4,18.6,30.50,ESE,119,3.0,9.0,50,0.00,,SKC,0.00,512.00,VWS V14.01,2013-02-10 16:07:00,
2013-02-10 11:10:00,35.8,19.0,30.50,ESE,121,5.0,9.0,50,0.00,,SKC,0.00,490.00,VWS V14.01,2013-02-10 16:10:00,
2013-02-10 11:12:00,36.0,18.7,30.50,East,97,5.0,9.0,49,0.00,,SKC,0.00,461.00,VWS V14.01,2013-02-10 16:12:00,
2013-02-10 11:15:00,36.2,18.9,30.49,SE,128,4.0,9.0,49,0.00,,SKC,0.00,425.00,VWS V14.01,2013-02-10 16:15:00,
2013-02-10 11:16:00,36.2,18.4,30.49,ESE,122,5.0,9.0,48,0.00,,SKC,0.00,425.00,VWS V14.01,2013-02-10 16:16:00,
2013-02-10 11:17:00,36.3,19.5,30.49,ESE,123,2.0,9.0,50,0.00,,SKC,0.00,388.00,VWS V14.01,2013-02-10 16:17:00,
2013-02-10 11:20:00,36.5,19.2,30.49,SE,132,2.0,9.0,49,0.00,,SKC,0.00,427.00,VWS V14.01,2013-02-10 16:20:00,
2013-02-10 11:21:00,36.6,18.8,30.49,East,94,5.0,9.0,48,0.00,,SKC,0.00,427.00,VWS V14.01,2013-02-10 16:21:00,
2013-02-10 11:22:00,36.7,19.4,30.49,SSW,196,4.0,9.0,49,0.00,,SKC,0.00,388.00,VWS V14.01,2013-02-10 16:22:00,
2013-02-10 11:25:00,37.0,19.6,30.49,SW,214,9.0,9.0,49,0.00,,SKC,0.00,338.00,VWS V14.01,2013-02-10 16:25:00,
2013-02-10 11:26:00,36.9,18.6,30.49,SW,221,6.0,9.0,47,0.00,,SKC,0.00,357.00,VWS V14.01,2013-02-10 16:26:00,
2013-02-10 11:27:00,36.7,17.9,30.49,SSW,204,4.0,9.0,46,0.00,,SKC,0.00,367.00,VWS V14.01,2013-02-10 16:27:00,
2013-02-10 11:30:00,36.7,18.9,30.48,SSE,167,3.0,9.0,48,0.00,,SKC,0.00,394.00,VWS V14.01,2013-02-10 16:30:00,
2013-02-10 11:31:00,36.8,19.0,30.48,SE,127,5.0,5.0,48,0.00,,SKC,0.00,397.00,VWS V14.01,2013-02-10 16:31:00,
2013-02-10 11:33:00,36.8,18.5,30.48,SE,138,4.0,7.0,47,0.00,,SKC,0.00,413.00,VWS V14.01,2013-02-10 16:33:00,
2013-02-10 11:35:00,37.1,19.7,30.48,SE,136,4.0,7.0,49,0.00,,SKC,0.00,510.00,VWS V14.01,2013-02-10 16:35:00,
2013-02-10 11:36:00,37.2,19.3,30.49,SE,140,6.0,7.0,48,0.00,,SKC,0.00,434.00,VWS V14.01,2013-02-10 16:36:00,
2013-02-10 11:38:00,37.5,20.1,30.49,SSE,166,3.0,7.0,49,0.00,,SKC,0.00,448.00,VWS V14.01,2013-02-10 16:38:00,
2013-02-10 11:40:00,37.7,19.3,30.49,ESE,123,9.0,10.0,47,0.00,,SKC,0.00,452.00,VWS V14.01,2013-02-10 16:40:00,
2013-02-10 11:42:00,37.6,19.2,30.49,SE,138,3.0,10.0,47,0.00,,SKC,0.00,452.00,VWS V14.01,2013-02-10 16:42:00,
2013-02-10 11:43:00,37.7,19.3,30.49,ESE,118,7.0,10.0,47,0.00,,SKC,0.00,452.00,VWS V14.01,2013-02-10 16:43:00,
2013-02-10 11:45:00,37.7,19.3,30.48,SE,130,4.0,10.0,47,0.00,,SKC,0.00,501.00,VWS V14.01,2013-02-10 16:45:00,
2013-02-10 11:47:00,37.8,19.4,30.48,ESE,123,8.0,10.0,47,0.00,,SKC,0.00,543.00,VWS V14.01,2013-02-10 16:47:00,
2013-02-10 11:48:00,37.9,20.0,30.48,ESE,106,4.0,10.0,48,0.00,,SKC,0.00,466.00,VWS V14.01,2013-02-10 16:48:00,
2013-02-10 11:50:00,38.2,19.3,30.48,SE,128,7.0,10.0,46,0.00,,SKC,0.00,504.00,VWS V14.01,2013-02-10 16:50:00,
2013-02-10 11:52:00,38.3,20.4,30.48,East,96,5.0,10.0,48,0.00,,SKC,0.00,499.00,VWS V14.01,2013-02-10 16:52:00,
2013-02-10 11:53:00,38.4,19.9,30.48,East,84,1.0,10.0,47,0.00,,SKC,0.00,554.00,VWS V14.01,2013-02-10 16:53:00,
2013-02-10 11:56:00,39.3,20.8,30.47,ESE,117,3.0,10.0,47,0.00,,SKC,0.00,554.00,VWS V14.01,2013-02-10 16:56:00,
2013-02-10 11:57:00,39.3,20.3,30.47,ESE,123,4.0,10.0,46,0.00,,SKC,0.00,543.00,VWS V14.01,2013-02-10 16:57:00,
2013-02-10 11:58:00,39.3,20.3,30.47,SE,138,7.0,10.0,46,0.00,,SKC,0.00,455.00,VWS V14.01,2013-02-10 16:58:00,
2013-02-10 12:01:00,38.9,19.4,30.47,SW,223,3.0,8.0,45,0.00,,SKC,0.00,503.00,VWS V14.01,2013-02-10 17:01:00,
2013-02-10 12:02:00,38.8,19.3,30.46,SW,221,5.0,8.0,45,0.00,,SKC,0.00,473.00,VWS V14.01,2013-02-10 17:02:00,
2013-02-10 12:03:00,38.7,19.7,30.46,SE,142,5.0,8.0,46,0.00,,SKC,0.00,504.00,VWS V14.01,2013-02-10 17:03:00,
2013-02-10 12:04:00,38.7,19.7,30.46,SE,128,4.0,8.0,46,0.00,,SKC,0.00,506.00,VWS V14.01,2013-02-10 17:04:00,
2013-02-10 12:06:00,39.0,20.5,30.46,SSE,157,1.0,8.0,47,0.00,,SKC,0.00,517.00,VWS V14.01,2013-02-10 17:06:00,
2013-02-10 12:07:00,39.0,20.0,30.46,SSW,200,2.0,8.0,46,0.00,,SKC,0.00,527.00,VWS V14.01,2013-02-10 17:07:00,
2013-02-10 12:08:00,39.1,20.1,30.46,SSW,193,0.0,8.0,46,0.00,,SKC,0.00,527.00,VWS V14.01,2013-02-10 17:08:00,
2013-02-10 12:09:00,39.1,20.1,30.46,SSW,193,0.0,8.0,46,0.00,,SKC,0.00,527.00,VWS V14.01,2013-02-10 17:09:00,
2013-02-10 12:11:00,39.5,20.5,30.46,SE,136,1.0,8.0,46,0.00,,SKC,0.00,575.00,VWS V14.01,2013-02-10 17:11:00,
2013-02-10 12:12:00,39.5,19.9,30.46,SE,134,3.0,8.0,45,0.00,,SKC,0.00,649.00,VWS V14.01,2013-02-10 17:12:00,
2013-02-10 12:13:00,39.8,21.7,30.46,SSE,148,4.0,8.0,48,0.00,,SKC,0.00,677.00,VWS V14.01,2013-02-10 17:13:00,
2013-02-10 12:14:00,39.9,21.3,30.46,SSE,148,4.0,8.0,47,0.00,,SKC,0.00,677.00,VWS V14.01,2013-02-10 17:14:00,
2013-02-10 12:16:00,39.8,20.7,30.46,South,174,0.0,8.0,46,0.00,,SKC,0.00,686.00,VWS V14.01,2013-02-10 17:16:00,
2013-02-10 12:17:00,39.8,20.7,30.46,ESE,115,0.0,8.0,46,0.00,,SKC,0.00,679.00,VWS V14.01,2013-02-10 17:17:00,
2013-02-10 12:18:00,39.9,20.8,30.46,ESE,122,8.0,8.0,46,0.00,,SKC,0.00,668.00,VWS V14.01,2013-02-10 17:18:00,
2013-02-10 12:19:00,39.8,20.2,30.46,ESE,111,2.0,8.0,45,0.00,,SKC,0.00,668.00,VWS V14.01,2013-02-10 17:19:00,
2013-02-10 12:21:00,39.9,20.3,30.45,ESE,115,4.0,8.0,45,0.00,,SKC,0.00,540.00,VWS V14.01,2013-02-10 17:21:00,
2013-02-10 12:23:00,39.8,20.2,30.45,SSE,165,2.0,8.0,45,0.00,,SKC,0.00,566.00,VWS V14.01,2013-02-10 17:23:00,
2013-02-10 12:24:00,39.6,20.5,30.45,ESE,123,5.0,8.0,46,0.00,,SKC,0.00,577.00,VWS V14.01,2013-02-10 17:24:00,
2013-02-10 12:27:00,39.9,20.8,30.45,SE,126,0.0,8.0,46,0.00,,SKC,0.00,652.00,VWS V14.01,2013-02-10 17:27:00,
2013-02-10 12:28:00,39.9,20.8,30.44,SE,126,0.0,8.0,46,0.00,,SKC,0.00,652.00,VWS V14.01,2013-02-10 17:28:00,
2013-02-10 12:29:00,41.1,22.4,30.44,SE,129,0.0,8.0,47,0.00,,SKC,0.00,687.00,VWS V14.01,2013-02-10 17:29:00,
2013-02-10 12:30:00,41.3,21.0,30.44,SW,236,5.0,8.0,44,0.00,,SKC,0.00,677.00,VWS V14.01,2013-02-10 17:30:00,
2013-02-10 12:32:00,40.7,21.0,30.44,SSW,204,5.0,8.0,45,0.00,,SKC,0.00,687.00,VWS V14.01,2013-02-10 17:32:00,
2013-02-10 12:33:00,40.6,20.9,30.44,SSE,149,5.0,8.0,45,0.00,,SKC,0.00,680.00,VWS V14.01,2013-02-10 17:33:00,
2013-02-10 12:34:00,40.5,20.9,30.44,SE,140,5.0,8.0,45,0.00,,SKC,0.00,679.00,VWS V14.01,2013-02-10 17:34:00,
2013-02-10 12:35:00,40.5,21.4,30.44,ESE,122,5.0,8.0,46,0.00,,SKC,0.00,675.00,VWS V14.01,2013-02-10 17:35:00,
2013-02-10 12:37:00,40.6,21.5,30.44,ESE,109,0.0,8.0,46,0.00,,SKC,0.00,673.00,VWS V14.01,2013-02-10 17:37:00,
2013-02-10 12:38:00,40.9,21.7,30.44,ESE,109,0.0,8.0,46,0.00,,SKC,0.00,671.00,VWS V14.01,2013-02-10 17:38:00,
2013-02-10 12:39:00,41.3,22.6,30.44,SE,138,1.0,8.0,47,0.00,,SKC,0.00,671.00,VWS V14.01,2013-02-10 17:39:00,
2013-02-10 12:40:00,41.8,22.5,30.44,SE,142,1.0,8.0,46,0.00,,SKC,0.00,673.00,VWS V14.01,2013-02-10 17:40:00,
2013-02-10 12:43:00,41.8,22.0,30.44,SSE,147,5.0,8.0,45,0.00,,SKC,0.00,673.00,VWS V14.01,2013-02-10 17:43:00,
2013-02-10 12:44:00,41.8,21.0,30.44,SE,146,3.0,8.0,43,0.00,,SKC,0.00,670.00,VWS V14.01,2013-02-10 17:44:00,
2013-02-10 12:46:00,42.0,21.1,30.44,East,94,5.0,8.0,43,0.00,,SKC,0.00,668.00,VWS V14.01,2013-02-10 17:46:00,
2013-02-10 12:48:00,41.9,21.0,30.43,SE,129,2.0,8.0,43,0.00,,SKC,0.00,668.00,VWS V14.01,2013-02-10 17:48:00,
2013-02-10 12:49:00,41.8,21.0,30.43,SE,137,5.0,8.0,43,0.00,,SKC,0.00,668.00,VWS V14.01,2013-02-10 17:49:00,
2013-02-10 12:51:00,41.7,20.9,30.43,SSE,155,5.0,8.0,43,0.00,,SKC,0.00,671.00,VWS V14.01,2013-02-10 17:51:00,
2013-02-10 12:53:00,41.6,20.2,30.43,SE,132,7.0,12.0,42,0.00,,SKC,0.00,673.00,VWS V14.01,2013-02-10 17:53:00,
2013-02-10 12:54:00,41.4,19.5,30.43,ESE,116,8.0,12.0,41,0.00,,SKC,0.00,677.00,VWS V14.01,2013-02-10 17:54:00,
2013-02-10 12:56:00,41.6,20.8,30.42,ESE,115,7.0,12.0,43,0.00,,SKC,0.00,677.00,VWS V14.01,2013-02-10 17:56:00,
2013-02-10 12:58:00,41.7,20.3,30.42,SSE,151,4.0,12.0,42,0.00,,SKC,0.00,684.00,VWS V14.01,2013-02-10 17:58:00,
2013-02-10 12:59:00,41.8,20.4,30.42,ESE,121,2.0,12.0,42,0.00,,SKC,0.00,726.00,VWS V14.01,2013-02-10 17:59:00,
2013-02-10 13:01:00,41.9,20.5,30.42,ESE,115,2.0,12.0,42,0.00,,SKC,0.00,724.00,VWS V14.01,2013-02-10 18:01:00,
2013-02-10 13:03:00,42.4,21.0,30.42,ESE,117,4.0,4.0,42,0.00,,SKC,0.00,703.00,VWS V14.01,2013-02-10 18:03:00,
2013-02-10 13:04:00,42.6,20.6,30.42,South,179,2.0,4.0,41,0.00,,SKC,0.00,703.00,VWS V14.01,2013-02-10 18:04:00,
2013-02-10 13:06:00,42.6,20.6,30.41,SSE,162,11.0,13.0,41,0.00,,SKC,0.00,745.00,VWS V14.01,2013-02-10 18:06:00,
2013-02-10 13:08:00,42.0,19.5,30.41,ESE,111,10.0,13.0,40,0.00,,SKC,0.00,712.00,VWS V14.01,2013-02-10 18:08:00,
2013-02-10 13:10:00,41.8,19.8,30.41,ESE,117,4.0,13.0,41,0.00,,SKC,0.00,545.00,VWS V14.01,2013-02-10 18:10:00,
2013-02-10 13:11:00,41.7,20.3,30.41,ESE,107,8.0,13.0,42,0.00,,SKC,0.00,457.00,VWS V14.01,2013-02-10 18:11:00,
2013-02-10 13:13:00,41.6,19.7,30.41,SW,225,8.0,13.0,41,0.00,,SKC,0.00,663.00,VWS V14.01,2013-02-10 18:13:00,
2013-02-10 13:15:00,41.8,21.0,30.41,SE,134,12.0,13.0,43,0.00,,SKC,0.00,663.00,VWS V14.01,2013-02-10 18:15:00,
2013-02-10 13:17:00,41.9,21.0,30.40,SE,136,8.0,13.0,43,0.00,,SKC,0.00,668.00,VWS V14.01,2013-02-10 18:17:00,
2013-02-10 13:18:00,41.9,19.9,30.40,SE,146,1.0,13.0,41,0.00,,SKC,0.00,680.00,VWS V14.01,2013-02-10 18:18:00,
2013-02-10 13:19:00,41.8,19.8,30.40,SE,134,4.0,13.0,41,0.00,,SKC,0.00,680.00,VWS V14.01,2013-02-10 18:19:00,
2013-02-10 13:20:00,41.8,19.8,30.40,SSE,155,8.0,13.0,41,0.00,,SKC,0.00,693.00,VWS V14.01,2013-02-10 18:20:00,
2013-02-10 13:22:00,41.8,19.8,30.40,ESE,122,7.0,13.0,41,0.00,,SKC,0.00,552.00,VWS V14.01,2013-02-10 18:22:00,
2013-02-10 13:23:00,41.7,20.3,30.40,SSE,147,4.0,13.0,42,0.00,,SKC,0.00,763.00,VWS V14.01,2013-02-10 18:23:00,
2013-02-10 13:24:00,41.8,20.4,30.40,SSE,156,2.0,13.0,42,0.00,,SKC,0.00,763.00,VWS V14.01,2013-02-10 18:24:00,
2013-02-10 13:25:00,41.9,20.5,30.40,SE,137,4.0,13.0,42,0.00,,SKC,0.00,763.00,VWS V14.01,2013-02-10 18:25:00,
2013-02-10 13:27:00,42.1,20.7,30.40,South,172,2.0,13.0,42,0.00,,SKC,0.00,763.00,VWS V14.01,2013-02-10 18:27:00,
2013-02-10 13:28:00,42.2,21.3,30.40,ESE,121,7.0,13.0,43,0.00,,SKC,0.00,448.00,VWS V14.01,2013-02-10 18:28:00,
2013-02-10 13:29:00,42.4,21.0,30.40,East,81,3.0,13.0,42,0.00,,SKC,0.00,789.00,VWS V14.01,2013-02-10 18:29:00,
2013-02-10 13:30:00,42.7,20.7,30.40,SE,129,0.0,13.0,41,0.00,,SKC,0.00,789.00,VWS V14.01,2013-02-10 18:30:00,
2013-02-10 13:33:00,42.9,20.8,30.40,SSE,152,4.0,9.0,41,0.00,,SKC,0.00,234.00,VWS V14.01,2013-02-10 18:33:00,
2013-02-10 13:34:00,42.8,20.2,30.40,SE,133,6.0,9.0,40,0.00,,SKC,0.00,246.00,VWS V14.01,2013-02-10 18:34:00,
2013-02-10 13:35:00,42.5,19.9,30.40,SE,128,2.0,9.0,40,0.00,,SKC,0.00,728.00,VWS V14.01,2013-02-10 18:35:00,
2013-02-10 13:38:00,42.8,21.3,30.40,SSE,150,1.0,9.0,42,0.00,,SKC,0.00,737.00,VWS V14.01,2013-02-10 18:38:00,
2013-02-10 13:39:00,43.0,20.9,30.39,ESE,115,8.0,12.0,41,0.00,,SKC,0.00,719.00,VWS V14.01,2013-02-10 18:39:00,
2013-02-10 13:40:00,43.2,21.7,30.39,SE,144,2.0,12.0,42,0.00,,SKC,0.00,719.00,VWS V14.01,2013-02-10 18:40:00,
2013-02-10 13:43:00,43.4,21.9,30.39,ESE,117,10.0,12.0,42,0.00,,SKC,0.00,719.00,VWS V14.01,2013-02-10 18:43:00,
2013-02-10 13:44:00,43.2,21.1,30.39,SE,126,9.0,13.0,41,0.00,,SKC,0.00,257.00,VWS V14.01,2013-02-10 18:44:00,
2013-02-10 13:46:00,42.7,21.2,30.39,SSE,161,5.0,13.0,42,0.00,,SKC,0.00,343.00,VWS V14.01,2013-02-10 18:46:00,
2013-02-10 13:48:00,42.5,21.0,30.39,South,171,2.0,13.0,42,0.00,,SKC,0.00,385.00,VWS V14.01,2013-02-10 18:48:00,
2013-02-10 13:49:00,42.4,21.0,30.39,SSE,167,3.0,13.0,42,0.00,,SKC,0.00,396.00,VWS V14.01,2013-02-10 18:49:00,
2013-02-10 13:50:00,42.4,21.0,30.39,ESE,115,8.0,13.0,42,0.00,,SKC,0.00,466.00,VWS V14.01,2013-02-10 18:50:00,
2013-02-10 13:51:00,42.5,21.6,30.39,SSE,164,1.0,13.0,43,0.00,,SKC,0.00,408.00,VWS V14.01,2013-02-10 18:51:00,
2013-02-10 13:53:00,42.7,21.2,30.39,SSW,210,7.0,13.0,42,0.00,,SKC,0.00,406.00,VWS V14.01,2013-02-10 18:53:00,
2013-02-10 13:54:00,42.5,21.0,30.39,SW,217,7.0,13.0,42,0.00,,SKC,0.00,429.00,VWS V14.01,2013-02-10 18:54:00,
2013-02-10 13:55:00,42.4,21.0,30.39,SSW,213,7.0,13.0,42,0.00,,SKC,0.00,436.00,VWS V14.01,2013-02-10 18:55:00,
2013-02-10 13:56:00,42.2,20.8,30.38,SSW,205,7.0,14.0,42,0.00,,SKC,0.00,446.00,VWS V14.01,2013-02-10 18:56:00,
2013-02-10 13:58:00,42.2,20.8,30.38,SSW,195,5.0,14.0,42,0.00,,SKC,0.00,411.00,VWS V14.01,2013-02-10 18:58:00,
2013-02-10 13:59:00,42.3,20.9,30.39,SSE,151,7.0,14.0,42,0.00,,SKC,0.00,355.00,VWS V14.01,2013-02-10 18:59:00,
2013-02-10 14:00:00,42.3,20.9,30.39,SSE,151,9.0,14.0,42,0.00,,SKC,0.00,355.00,VWS V14.01,2013-02-10 19:00:00,
2013-02-10 14:01:00,42.4,21.5,30.39,SE,128,6.0,7.0,43,0.00,,SKC,0.00,336.00,VWS V14.01,2013-02-10 19:01:00,
2013-02-10 14:03:00,42.6,21.7,30.38,SE,134,4.0,7.0,43,0.00,,SKC,0.00,320.00,VWS V14.01,2013-02-10 19:03:00,
2013-02-10 14:05:00,42.6,21.7,30.38,SSE,153,3.0,7.0,43,0.00,,SKC,0.00,318.00,VWS V14.01,2013-02-10 19:05:00,
2013-02-10 14:07:00,42.7,21.8,30.38,SE,134,2.0,8.0,43,0.00,,SKC,0.00,308.00,VWS V14.01,2013-02-10 19:07:00,
2013-02-10 14:08:00,42.8,21.9,30.38,ESE,119,5.0,8.0,43,0.00,,SKC,0.00,304.00,VWS V14.01,2013-02-10 19:08:00,
2013-02-10 14:10:00,42.9,22.0,30.38,SSE,155,4.0,10.0,43,0.00,,SKC,0.00,301.00,VWS V14.01,2013-02-10 19:10:00,
2013-02-10 14:12:00,42.9,21.4,30.38,ESE,113,2.0,10.0,42,0.00,,SKC,0.00,325.00,VWS V14.01,2013-02-10 19:12:00,
2013-02-10 14:13:00,43.0,22.0,30.38,ESE,117,0.0,10.0,43,0.00,,SKC,0.00,353.00,VWS V14.01,2013-02-10 19:13:00,
2013-02-10 14:15:00,43.3,22.3,30.38,SW,218,3.0,10.0,43,0.00,,SKC,0.00,373.00,VWS V14.01,2013-02-10 19:15:00,
2013-02-10 14:16:00,43.4,22.4,30.38,ESE,121,2.0,10.0,43,0.00,,SKC,0.00,367.00,VWS V14.01,2013-02-10 19:16:00,
2013-02-10 14:17:00,43.6,22.0,30.38,SW,217,3.0,10.0,42,0.00,,SKC,0.00,359.00,VWS V14.01,2013-02-10 19:17:00,
2013-02-10 14:18:00,43.7,21.6,30.38,South,173,6.0,10.0,41,0.00,,SKC,0.00,380.00,VWS V14.01,2013-02-10 19:18:00,
2013-02-10 14:20:00,43.7,21.6,30.38,SE,133,6.0,10.0,41,0.00,,SKC,0.00,390.00,VWS V14.01,2013-02-10 19:20:00,
2013-02-10 14:21:00,43.7,22.1,30.37,ESE,103,4.0,10.0,42,0.00,,SKC,0.00,390.00,VWS V14.01,2013-02-10 19:21:00,
2013-02-10 14:22:00,43.8,22.2,30.38,SSE,162,3.0,10.0,42,0.00,,SKC,0.00,390.00,VWS V14.01,2013-02-10 19:22:00,
2013-02-10 14:24:00,43.9,22.3,30.37,SE,125,9.0,10.0,42,0.00,,SKC,0.00,390.00,VWS V14.01,2013-02-10 19:24:00,
2013-02-10 14:25:00,44.0,22.4,30.37,ESE,112,3.0,11.0,42,0.00,,SKC,0.00,390.00,VWS V14.01,2013-02-10 19:25:00,
2013-02-10 14:26:00,44.0,22.4,30.37,SE,136,6.0,11.0,42,0.00,,SKC,0.00,390.00,VWS V14.01,2013-02-10 19:26:00,
2013-02-10 14:27:00,44.0,22.4,30.37,ESE,116,5.0,11.0,42,0.00,,SKC,0.00,571.00,VWS V14.01,2013-02-10 19:27:00,
2013-02-10 14:29:00,44.0,21.8,30.36,ESE,107,5.0,11.0,41,0.00,,SKC,0.00,571.00,VWS V14.01,2013-02-10 19:29:00,
2013-02-10 14:30:00,43.9,21.2,30.37,SE,138,5.0,11.0,40,0.00,,SKC,0.00,571.00,VWS V14.01,2013-02-10 19:30:00,
2013-02-10 14:31:00,43.9,21.7,30.37,SE,132,0.0,4.0,41,0.00,,SKC,0.00,571.00,VWS V14.01,2013-02-10 19:31:00,
2013-02-10 14:32:00,44.1,21.9,30.37,SSE,159,2.0,4.0,41,0.00,,SKC,0.00,661.00,VWS V14.01,2013-02-10 19:32:00,
2013-02-10 14:34:00,44.1,21.3,30.36,ESE,121,2.0,8.0,40,0.00,,SKC,0.00,635.00,VWS V14.01,2013-02-10 19:34:00,
2013-02-10 14:35:00,44.1,21.3,30.37,ESE,109,2.0,8.0,40,0.00,,SKC,0.00,612.00,VWS V14.01,2013-02-10 19:35:00,
2013-02-10 14:37:00,44.3,22.1,30.36,SSE,161,4.0,8.0,41,0.00,,SKC,0.00,596.00,VWS V14.01,2013-02-10 19:37:00,
2013-02-10 14:40:00,44.7,22.5,30.36,SE,134,5.0,8.0,41,0.00,,SKC,0.00,563.00,VWS V14.01,2013-02-10 19:40:00,
2013-02-10 14:42:00,44.7,22.5,30.36,SE,140,8.0,8.0,41,0.00,,SKC,0.00,527.00,VWS V14.01,2013-02-10 19:42:00,
2013-02-10 14:45:00,44.7,21.9,30.36,SE,144,5.0,9.0,40,0.00,,SKC,0.00,503.00,VWS V14.01,2013-02-10 19:45:00,
2013-02-10 14:47:00,44.5,22.3,30.35,East,99,6.0,10.0,41,0.00,,SKC,0.00,445.00,VWS V14.01,2013-02-10 19:47:00,
2013-02-10 14:50:00,44.6,22.4,30.35,SE,131,4.0,10.0,41,0.00,,SKC,0.00,424.00,VWS V14.01,2013-02-10 19:50:00,
2013-02-10 14:51:00,44.7,21.9,30.35,ESE,113,5.0,10.0,40,0.00,,SKC,0.00,443.00,VWS V14.01,2013-02-10 19:51:00,
2013-02-10 14:53:00,44.9,22.6,30.34,ESE,116,8.0,10.0,41,0.00,,SKC,0.00,441.00,VWS V14.01,2013-02-10 19:53:00,
2013-02-10 14:55:00,44.8,21.4,30.34,ESE,102,2.0,10.0,39,0.00,,SKC,0.00,443.00,VWS V14.01,2013-02-10 19:55:00,
2013-02-10 14:56:00,44.8,22.0,30.34,ESE,120,7.0,10.0,40,0.00,,SKC,0.00,413.00,VWS V14.01,2013-02-10 19:56:00,
2013-02-10 14:58:00,44.5,21.1,30.34,ESE,105,7.0,10.0,39,0.00,,SKC,0.00,468.00,VWS V14.01,2013-02-10 19:58:00,
2013-02-10 15:00:00,44.5,21.7,30.34,ESE,117,4.0,10.0,40,0.00,,SKC,0.00,510.00,VWS V14.01,2013-02-10 20:00:00,
2013-02-10 15:01:00,44.5,21.7,30.34,East,84,2.0,10.0,40,0.00,,SKC,0.00,529.00,VWS V14.01,2013-02-10 20:01:00,
2013-02-10 15:03:00,45.4,23.1,30.34,ESE,104,3.0,6.0,41,0.00,,SKC,0.00,543.00,VWS V14.01,2013-02-10 20:03:00,
2013-02-10 15:05:00,46.1,23.1,30.33,East,97,3.0,6.0,40,0.00,,SKC,0.00,559.00,VWS V14.01,2013-02-10 20:05:00,
2013-02-10 15:06:00,46.3,23.3,30.33,SE,128,7.0,7.0,40,0.00,,SKC,0.00,554.00,VWS V14.01,2013-02-10 20:06:00,
2013-02-10 15:08:00,46.5,22.9,30.33,ESE,111,0.0,9.0,39,0.00,,SKC,0.00,540.00,VWS V14.01,2013-02-10 20:08:00,
2013-02-10 15:11:00,47.1,22.2,30.33,East,98,6.0,9.0,37,0.00,,SKC,0.00,497.00,VWS V14.01,2013-02-10 20:11:00,
2013-02-10 15:13:00,46.8,22.5,30.33,ESE,120,5.0,9.0,38,0.00,,SKC,0.00,478.00,VWS V14.01,2013-02-10 20:13:00,
2013-02-10 15:16:00,46.4,23.4,30.34,East,89,5.0,9.0,40,0.00,,SKC,0.00,448.00,VWS V14.01,2013-02-10 20:16:00,
2013-02-10 15:18:00,46.3,22.1,30.34,East,82,1.0,9.0,38,0.00,,SKC,0.00,418.00,VWS V14.01,2013-02-10 20:18:00,
2013-02-10 15:21:00,46.3,23.3,30.34,ESE,123,4.0,9.0,40,0.00,,SKC,0.00,352.00,VWS V14.01,2013-02-10 20:21:00,
2013-02-10 15:23:00,46.3,22.7,30.34,ESE,109,2.0,9.0,39,0.00,,SKC,0.00,355.00,VWS V14.01,2013-02-10 20:23:00,
2013-02-10 15:26:00,46.1,22.5,30.34,East,96,3.0,9.0,39,0.00,,SKC,0.00,345.00,VWS V14.01,2013-02-10 20:26:00,
2013-02-10 15:28:00,46.3,23.3,30.34,East,84,5.0,9.0,40,0.00,,SKC,0.00,332.00,VWS V14.01,2013-02-10 20:28:00,
2013-02-10 15:29:00,46.2,22.6,30.34,ESE,113,4.0,9.0,39,0.00,,SKC,0.00,332.00,VWS V14.01,2013-02-10 20:29:00,
2013-02-10 15:31:00,46.2,22.6,30.34,East,95,5.0,6.0,39,0.00,,SKC,0.00,253.00,VWS V14.01,2013-02-10 20:31:00,
2013-02-10 15:34:00,46.2,22.6,30.34,ESE,116,8.0,9.0,39,0.00,,SKC,0.00,246.00,VWS V14.01,2013-02-10 20:34:00,
2013-02-10 15:36:00,46.2,23.2,30.34,SE,125,5.0,9.0,40,0.00,,SKC,0.00,234.00,VWS V14.01,2013-02-10 20:36:00,
2013-02-10 15:37:00,46.2,23.2,30.34,East,94,3.0,9.0,40,0.00,,SKC,0.00,234.00,VWS V14.01,2013-02-10 20:37:00,
2013-02-10 15:39:00,46.2,23.2,30.34,SE,130,3.0,9.0,40,0.00,,SKC,0.00,239.00,VWS V14.01,2013-02-10 20:39:00,
2013-02-10 15:42:00,46.1,22.5,30.34,East,92,3.0,13.0,39,0.00,,SKC,0.00,214.00,VWS V14.01,2013-02-10 20:42:00,
2013-02-10 15:44:00,46.1,23.1,30.34,SSE,165,3.0,13.0,40,0.00,,SKC,0.00,207.00,VWS V14.01,2013-02-10 20:44:00,
2013-02-10 15:47:00,46.0,23.0,30.33,ESE,107,5.0,13.0,40,0.00,,SKC,0.00,239.00,VWS V14.01,2013-02-10 20:47:00,
2013-02-10 15:49:00,45.9,23.0,30.34,East,92,5.0,13.0,40,0.00,,SKC,0.00,200.00,VWS V14.01,2013-02-10 20:49:00,
2013-02-10 15:52:00,45.9,23.5,30.34,SE,134,5.0,13.0,41,0.00,,SKC,0.00,181.00,VWS V14.01,2013-02-10 20:52:00,
2013-02-10 15:54:00,46.0,23.0,30.34,ESE,102,3.0,13.0,40,0.00,,SKC,0.00,165.00,VWS V14.01,2013-02-10 20:54:00,
2013-02-10 15:57:00,46.0,23.0,30.34,SE,124,6.0,13.0,40,0.00,,SKC,0.00,165.00,VWS V14.01,2013-02-10 20:57:00,
2013-02-10 15:59:00,45.9,23.0,30.33,ESE,121,2.0,13.0,40,0.00,,SKC,0.00,172.00,VWS V14.01,2013-02-10 20:59:00,
2013-02-10 16:02:00,46.0,23.0,30.33,South,169,3.0,7.0,40,0.00,,SKC,0.00,213.00,VWS V14.01,2013-02-10 21:02:00,
2013-02-10 16:04:00,46.1,23.1,30.33,ESE,123,8.0,10.0,40,0.00,,SKC,0.00,262.00,VWS V14.01,2013-02-10 21:04:00,
2013-02-10 16:05:00,46.1,23.1,30.33,SE,134,4.0,10.0,40,0.00,,SKC,0.00,272.00,VWS V14.01,2013-02-10 21:05:00,
2013-02-10 16:07:00,46.2,22.6,30.33,ESE,111,4.0,10.0,39,0.00,,SKC,0.00,267.00,VWS V14.01,2013-02-10 21:07:00,
2013-02-10 16:09:00,46.4,23.4,30.33,SE,124,2.0,10.0,40,0.00,,SKC,0.00,221.00,VWS V14.01,2013-02-10 21:09:00,
2013-02-10 16:10:00,46.4,23.4,30.33,SE,124,0.0,10.0,40,0.00,,SKC,0.00,246.00,VWS V14.01,2013-02-10 21:10:00,
2013-02-10 16:12:00,46.5,22.9,30.33,SE,133,9.0,11.0,39,0.00,,SKC,0.00,267.00,VWS V14.01,2013-02-10 21:12:00,
2013-02-10 16:13:00,46.6,23.0,30.33,SE,128,4.0,11.0,39,0.00,,SKC,0.00,272.00,VWS V14.01,2013-02-10 21:13:00,
2013-02-10 16:15:00,46.7,23.1,30.33,SE,125,2.0,11.0,39,0.00,,SKC,0.00,265.00,VWS V14.01,2013-02-10 21:15:00,
2013-02-10 16:17:00,46.8,23.2,30.33,ESE,106,2.0,11.0,39,0.00,,SKC,0.00,225.00,VWS V14.01,2013-02-10 21:17:00,
2013-02-10 16:18:00,46.9,23.3,30.33,SE,137,3.0,11.0,39,0.00,,SKC,0.00,197.00,VWS V14.01,2013-02-10 21:18:00,
2013-02-10 16:20:00,47.0,23.3,30.33,ESE,123,5.0,11.0,39,0.00,,SKC,0.00,178.00,VWS V14.01,2013-02-10 21:20:00,
2013-02-10 16:22:00,47.0,22.7,30.33,SE,136,5.0,11.0,38,0.00,,SKC,0.00,146.00,VWS V14.01,2013-02-10 21:22:00,
2013-02-10 16:23:00,47.0,22.7,30.33,SE,136,8.0,11.0,38,0.00,,SKC,0.00,130.00,VWS V14.01,2013-02-10 21:23:00,
2013-02-10 16:25:00,46.9,23.3,30.33,ESE,104,4.0,11.0,39,0.00,,SKC,0.00,127.00,VWS V14.01,2013-02-10 21:25:00,
2013-02-10 16:27:00,46.9,22.6,30.32,ESE,116,3.0,11.0,38,0.00,,SKC,0.00,134.00,VWS V14.01,2013-02-10 21:27:00,
2013-02-10 16:28:00,46.9,23.3,30.32,ESE,107,7.0,11.0,39,0.00,,SKC,0.00,134.00,VWS V14.01,2013-02-10 21:28:00,
2013-02-10 16:30:00,46.8,22.5,30.32,SE,134,3.0,11.0,38,0.00,,SKC,0.00,114.00,VWS V14.01,2013-02-10 21:30:00,
2013-02-10 16:33:00,46.8,23.2,30.32,SE,138,2.0,3.0,39,0.00,,SKC,0.00,105.00,VWS V14.01,2013-02-10 21:33:00,
2013-02-10 16:35:00,46.8,23.2,30.32,ESE,123,5.0,5.0,39,0.00,,SKC,0.00,100.00,VWS V14.01,2013-02-10 21:35:00,
2013-02-10 16:38:00,46.7,23.1,30.32,East,95,1.0,6.0,39,0.00,,SKC,0.00,91.00,VWS V14.01,2013-02-10 21:38:00,
2013-02-10 16:39:00,46.7,23.1,30.32,East,95,0.0,6.0,39,0.00,,SKC,0.00,91.00,VWS V14.01,2013-02-10 21:39:00,
2013-02-10 16:40:00,46.7,23.7,30.32,SE,138,1.0,6.0,40,0.00,,SKC,0.00,88.00,VWS V14.01,2013-02-10 21:40:00,
2013-02-10 16:43:00,46.7,23.1,30.31,SE,140,2.0,6.0,39,0.00,,SKC,0.00,76.00,VWS V14.01,2013-02-10 21:43:00,
2013-02-10 16:44:00,46.7,23.7,30.31,East,90,6.0,6.0,40,0.00,,SKC,0.00,76.00,VWS V14.01,2013-02-10 21:44:00,
2013-02-10 16:45:00,46.6,23.0,30.31,East,87,3.0,7.0,39,0.00,,SKC,0.00,72.00,VWS V14.01,2013-02-10 21:45:00,
2013-02-10 16:48:00,46.5,22.9,30.32,ENE,71,0.0,7.0,39,0.00,,SKC,0.00,67.00,VWS V14.01,2013-02-10 21:48:00,
2013-02-10 16:49:00,46.5,22.9,30.32,ENE,71,0.0,7.0,39,0.00,,SKC,0.00,67.00,VWS V14.01,2013-02-10 21:49:00,
2013-02-10 16:50:00,46.5,23.5,30.32,ESE,107,2.0,7.0,40,0.00,,SKC,0.00,65.00,VWS V14.01,2013-02-10 21:50:00,
2013-02-10 16:51:00,46.5,23.5,30.32,ESE,107,0.0,7.0,40,0.00,,SKC,0.00,63.00,VWS V14.01,2013-02-10 21:51:00,
2013-02-10 16:53:00,46.4,22.8,30.32,ESE,113,4.0,7.0,39,0.00,,SKC,0.00,62.00,VWS V14.01,2013-02-10 21:53:00,
2013-02-10 16:54:00,46.4,22.8,30.32,East,79,2.0,7.0,39,0.00,,SKC,0.00,62.00,VWS V14.01,2013-02-10 21:54:00,
2013-02-10 16:55:00,46.4,22.8,30.31,ESE,119,3.0,7.0,39,0.00,,SKC,0.00,60.00,VWS V14.01,2013-02-10 21:55:00,
2013-02-10 16:56:00,46.4,22.8,30.31,East,99,3.0,7.0,39,0.00,,SKC,0.00,60.00,VWS V14.01,2013-02-10 21:56:00,
2013-02-10 16:58:00,46.3,22.7,30.31,ESE,119,5.0,7.0,39,0.00,,SKC,0.00,58.00,VWS V14.01,2013-02-10 21:58:00,
2013-02-10 17:00:00,46.3,23.3,30.31,ESE,117,2.0,7.0,40,0.00,,SKC,0.00,56.00,VWS V14.01,2013-02-10 22:00:00,
2013-02-10 17:01:00,46.2,22.6,30.31,SE,146,2.0,4.0,39,0.00,,SKC,0.00,54.00,VWS V14.01,2013-02-10 22:01:00,
2013-02-10 17:04:00,46.1,23.1,30.31,ESE,113,3.0,4.0,40,0.00,,SKC,0.00,49.00,VWS V14.01,2013-02-10 22:04:00,
2013-02-10 17:05:00,46.1,23.1,30.31,ESE,116,3.0,4.0,40,0.00,,SKC,0.00,49.00,VWS V14.01,2013-02-10 22:05:00,
2013-02-10 17:06:00,46.1,23.1,30.31,SE,126,3.0,4.0,40,0.00,,SKC,0.00,47.00,VWS V14.01,2013-02-10 22:06:00,
2013-02-10 17:09:00,46.0,23.0,30.31,ESE,122,1.0,4.0,40,0.00,,SKC,0.00,46.00,VWS V14.01,2013-02-10 22:09:00,
2013-02-10 17:10:00,46.0,23.0,30.31,SE,124,3.0,4.0,40,0.00,,SKC,0.00,46.00,VWS V14.01,2013-02-10 22:10:00,
2013-02-10 17:12:00,45.9,23.0,30.31,ESE,115,3.0,5.0,40,0.00,,SKC,0.00,44.00,VWS V14.01,2013-02-10 22:12:00,
2013-02-10 17:14:00,45.9,23.0,30.32,ESE,107,2.0,5.0,40,0.00,,SKC,0.00,40.00,VWS V14.01,2013-02-10 22:14:00,
2013-02-10 17:15:00,45.9,23.0,30.32,ESE,121,1.0,5.0,40,0.00,,SKC,0.00,39.00,VWS V14.01,2013-02-10 22:15:00,
2013-02-10 17:17:00,45.9,23.0,30.32,SE,129,3.0,5.0,40,0.00,,SKC,0.00,37.00,VWS V14.01,2013-02-10 22:17:00,
2013-02-10 17:20:00,45.8,23.5,30.32,ESE,111,3.0,7.0,41,0.00,,SKC,0.00,32.00,VWS V14.01,2013-02-10 22:20:00,
2013-02-10 17:22:00,45.7,22.8,30.32,East,101,2.0,7.0,40,0.00,,SKC,0.00,30.00,VWS V14.01,2013-02-10 22:22:00,
2013-02-10 17:25:00,45.6,23.3,30.31,ESE,106,1.0,7.0,41,0.00,,SKC,0.00,26.00,VWS V14.01,2013-02-10 22:25:00,
2013-02-10 17:26:00,45.6,23.3,30.31,East,98,0.0,7.0,41,0.00,,SKC,0.00,25.00,VWS V14.01,2013-02-10 22:26:00,
2013-02-10 17:27:00,45.6,23.3,30.31,ESE,105,2.0,7.0,41,0.00,,SKC,0.00,25.00,VWS V14.01,2013-02-10 22:27:00,
2013-02-10 17:30:00,45.5,23.2,30.31,ESE,117,2.0,7.0,41,0.00,,SKC,0.00,21.00,VWS V14.01,2013-02-10 22:30:00,
2013-02-10 17:31:00,45.5,23.2,30.31,ESE,117,1.0,7.0,41,0.00,,SKC,0.00,21.00,VWS V14.01,2013-02-10 22:31:00,
2013-02-10 17:32:00,45.4,23.1,30.31,ESE,119,2.0,7.0,41,0.00,,SKC,0.00,19.00,VWS V14.01,2013-02-10 22:32:00,
2013-02-10 17:35:00,45.3,22.4,30.31,SE,128,2.0,7.0,40,0.00,,SKC,0.00,14.00,VWS V14.01,2013-02-10 22:35:00,
2013-02-10 17:36:00,45.3,23.0,30.31,SE,128,1.0,7.0,41,0.00,,SKC,0.00,14.00,VWS V14.01,2013-02-10 22:36:00,
2013-02-10 17:37:00,45.3,23.0,30.32,ESE,119,4.0,7.0,41,0.00,,SKC,0.00,12.00,VWS V14.01,2013-02-10 22:37:00,
2013-02-10 17:40:00,45.2,22.9,30.32,East,98,0.0,7.0,41,0.00,,SKC,0.00,9.00,VWS V14.01,2013-02-10 22:40:00,
2013-02-10 17:41:00,45.2,22.9,30.32,East,98,0.0,7.0,41,0.00,,SKC,0.00,9.00,VWS V14.01,2013-02-10 22:41:00,
2013-02-10 17:42:00,45.2,23.5,30.31,SE,126,3.0,7.0,42,0.00,,SKC,0.00,7.00,VWS V14.01,2013-02-10 22:42:00,
2013-02-10 17:46:00,45.1,22.8,30.32,SE,128,3.0,7.0,41,0.00,,SKC,0.00,5.00,VWS V14.01,2013-02-10 22:46:00,
2013-02-10 17:47:00,45.0,22.7,30.31,East,95,2.0,7.0,41,0.00,,SKC,0.00,0.00,VWS V14.01,2013-02-10 22:47:00,
2013-02-10 17:51:00,44.9,22.6,30.31,East,98,1.0,7.0,41,0.00,,SKC,0.00,0.00,VWS V14.01,2013-02-10 22:51:00,
2013-02-10 17:52:00,44.9,22.6,30.31,ESE,107,1.0,7.0,41,0.00,,SKC,0.00,0.00,VWS V14.01,2013-02-10 22:52:00,
2013-02-10 17:56:00,44.8,22.5,30.31,ESE,113,0.0,7.0,41,0.00,,SKC,0.00,0.00,VWS V14.01,2013-02-10 22:56:00,
2013-02-10 17:57:00,44.7,23.0,30.30,ESE,113,2.0,7.0,42,0.00,,SKC,0.00,0.00,VWS V14.01,2013-02-10 22:57:00,
2013-02-10 18:01:00,44.7,23.0,30.30,East,85,0.0,2.0,42,0.00,,SKC,0.00,0.00,VWS V14.01,2013-02-10 23:01:00,
2013-02-10 18:03:00,44.6,22.9,30.30,East,85,2.0,2.0,42,0.00,,SKC,0.00,0.00,VWS V14.01,2013-02-10 23:03:00,
2013-02-10 18:06:00,44.5,22.9,30.30,ESE,105,0.0,5.0,42,0.00,,SKC,0.00,0.00,VWS V14.01,2013-02-10 23:06:00,
2013-02-10 18:08:00,44.5,22.9,30.31,ESE,117,1.0,5.0,42,0.00,,SKC,0.00,0.00,VWS V14.01,2013-02-10 23:08:00,
2013-02-10 18:11:00,44.4,22.8,30.31,ESE,118,2.0,5.0,42,0.00,,SKC,0.00,0.00,VWS V14.01,2013-02-10 23:11:00,
2013-02-10 18:13:00,44.4,22.8,30.31,ESE,110,3.0,5.0,42,0.00,,SKC,0.00,0.00,VWS V14.01,2013-02-10 23:13:00,
2013-02-10 18:16:00,44.3,22.7,30.31,ESE,115,3.0,5.0,42,0.00,,SKC,0.00,0.00,VWS V14.01,2013-02-10 23:16:00,
2013-02-10 18:17:00,44.4,22.8,30.31,East,86,2.0,5.0,42,0.00,,SKC,0.00,0.00,VWS V14.01,2013-02-10 23:17:00,
2013-02-10 18:18:00,44.4,22.8,30.31,SE,132,0.0,5.0,42,0.00,,SKC,0.00,0.00,VWS V14.01,2013-02-10 23:18:00,
2013-02-10 18:21:00,44.4,22.8,30.31,ESE,105,1.0,5.0,42,0.00,,SKC,0.00,0.00,VWS V14.01,2013-02-10 23:21:00,
2013-02-10 18:22:00,44.4,22.8,30.31,ESE,105,1.0,5.0,42,0.00,,SKC,0.00,0.00,VWS V14.01,2013-02-10 23:22:00,
2013-02-10 18:23:00,44.3,23.2,30.32,ESE,105,0.0,5.0,43,0.00,,SKC,0.00,0.00,VWS V14.01,2013-02-10 23:23:00,
2013-02-10 18:26:00,44.3,22.7,30.32,ESE,121,1.0,5.0,42,0.00,,SKC,0.00,0.00,VWS V14.01,2013-02-10 23:26:00,
2013-02-10 18:27:00,44.3,22.7,30.31,ESE,109,2.0,5.0,42,0.00,,SKC,0.00,0.00,VWS V14.01,2013-02-10 23:27:00,
2013-02-10 18:28:00,44.3,22.7,30.31,ESE,107,2.0,5.0,42,0.00,,SKC,0.00,0.00,VWS V14.01,2013-02-10 23:28:00,
2013-02-10 18:32:00,44.3,23.2,30.32,ESE,121,0.0,0.0,43,0.00,,SKC,0.00,0.00,VWS V14.01,2013-02-10 23:32:00,
2013-02-10 18:33:00,44.3,23.2,30.32,ESE,119,1.0,2.0,43,0.00,,SKC,0.00,0.00,VWS V14.01,2013-02-10 23:33:00,
2013-02-10 18:37:00,44.2,23.1,30.32,ESE,119,0.0,2.0,43,0.00,,SKC,0.00,0.00,VWS V14.01,2013-02-10 23:37:00,
2013-02-10 18:39:00,44.2,23.1,30.32,ESE,119,0.0,2.0,43,0.00,,SKC,0.00,0.00,VWS V14.01,2013-02-10 23:39:00,
2013-02-10 18:42:00,44.2,23.1,30.33,ESE,119,0.0,2.0,43,0.00,,SKC,0.00,0.00,VWS V14.01,2013-02-10 23:42:00,
2013-02-10 18:44:00,44.1,23.6,30.33,ESE,119,0.0,2.0,44,0.00,,SKC,0.00,0.00,VWS V14.01,2013-02-10 23:44:00,
2013-02-10 18:47:00,44.0,23.0,30.33,ESE,119,0.0,2.0,43,0.00,,SKC,0.00,0.00,VWS V14.01,2013-02-10 23:47:00,
2013-02-10 18:48:00,44.0,23.5,30.33,ESE,119,0.0,2.0,44,0.00,,SKC,0.00,0.00,VWS V14.01,2013-02-10 23:48:00,
2013-02-10 18:49:00,44.0,23.5,30.32,ESE,119,0.0,2.0,44,0.00,,SKC,0.00,0.00,VWS V14.01,2013-02-10 23:49:00,
2013-02-10 18:52:00,43.9,23.4,30.32,ESE,119,0.0,2.0,44,0.00,,SKC,0.00,0.00,VWS V14.01,2013-02-10 23:52:00,
2013-02-10 18:53:00,43.9,22.9,30.33,ESE,119,0.0,2.0,43,0.00,,SKC,0.00,0.00,VWS V14.01,2013-02-10 23:53:00,
2013-02-10 18:54:00,43.9,22.9,30.33,ESE,119,0.0,2.0,43,0.00,,SKC,0.00,0.00,VWS V14.01,2013-02-10 23:54:00,
2013-02-10 18:57:00,43.9,22.9,30.32,ESE,119,0.0,2.0,43,0.00,,SKC,0.00,0.00,VWS V14.01,2013-02-10 23:57:00,
2013-02-10 18:58:00,43.9,22.9,30.32,ESE,119,0.0,2.0,43,0.00,,SKC,0.00,0.00,VWS V14.01,2013-02-10 23:58:00,
2013-02-10 19:00:00,43.9,23.4,30.32,ESE,119,0.0,2.0,44,0.00,,SKC,0.00,0.00,VWS V14.01,2013-02-11 00:00:00,
2013-02-10 19:02:00,43.9,23.4,30.32,ESE,119,0.0,1.0,44,0.00,,SKC,0.00,0.00,VWS V14.01,2013-02-11 00:02:00,
2013-02-10 19:03:00,43.8,23.3,30.32,ESE,119,0.0,1.0,44,0.00,,SKC,0.00,0.00,VWS V14.01,2013-02-11 00:03:00,
2013-02-10 19:05:00,43.8,23.3,30.32,ESE,119,0.0,1.0,44,0.00,,SKC,0.00,0.00,VWS V14.01,2013-02-11 00:05:00,
2013-02-10 19:07:00,43.8,23.3,30.32,ESE,119,0.0,1.0,44,0.00,,SKC,0.00,0.00,VWS V14.01,2013-02-11 00:07:00,
2013-02-10 19:08:00,43.8,23.3,30.32,ESE,119,0.0,1.0,44,0.00,,SKC,0.00,0.00,VWS V14.01,2013-02-11 00:08:00,
2013-02-10 19:10:00,43.7,23.2,30.32,ESE,119,1.0,1.0,44,0.00,,SKC,0.00,0.00,VWS V14.01,2013-02-11 00:10:00,
2013-02-10 19:12:00,43.6,23.1,30.32,ESE,119,0.0,1.0,44,0.00,,SKC,0.00,0.00,VWS V14.01,2013-02-11 00:12:00,
2013-02-10 19:13:00,43.6,23.1,30.32,ESE,119,0.0,1.0,44,0.00,,SKC,0.00,0.00,VWS V14.01,2013-02-11 00:13:00,
2013-02-10 19:14:00,43.6,23.1,30.32,ESE,119,0.0,1.0,44,0.00,,SKC,0.00,0.00,VWS V14.01,2013-02-11 00:14:00,
2013-02-10 19:15:00,43.5,23.0,30.32,ESE,119,0.0,1.0,44,0.00,,SKC,0.00,0.00,VWS V14.01,2013-02-11 00:15:00,
2013-02-10 19:17:00,43.5,23.6,30.32,ESE,119,1.0,1.0,45,0.00,,SKC,0.00,0.00,VWS V14.01,2013-02-11 00:17:00,
2013-02-10 19:18:00,43.5,23.6,30.33,ESE,119,0.0,1.0,45,0.00,,SKC,0.00,0.00,VWS V14.01,2013-02-11 00:18:00,
2013-02-10 19:19:00,43.4,23.5,30.33,ESE,119,0.0,1.0,45,0.00,,SKC,0.00,0.00,VWS V14.01,2013-02-11 00:19:00,
2013-02-10 19:20:00,43.4,23.5,30.32,ESE,119,0.0,1.0,45,0.00,,SKC,0.00,0.00,VWS V14.01,2013-02-11 00:20:00,
2013-02-10 19:22:00,43.4,23.0,30.33,ESE,119,0.0,1.0,44,0.00,,SKC,0.00,0.00,VWS V14.01,2013-02-11 00:22:00,
2013-02-10 19:23:00,43.4,23.5,30.33,ESE,119,0.0,1.0,45,0.00,,SKC,0.00,0.00,VWS V14.01,2013-02-11 00:23:00,
2013-02-10 19:24:00,43.4,23.5,30.33,ESE,119,0.0,1.0,45,0.00,,SKC,0.00,0.00,VWS V14.01,2013-02-11 00:24:00,
2013-02-10 19:26:00,43.3,23.4,30.33,ESE,119,0.0,1.0,45,0.00,,SKC,0.00,0.00,VWS V14.01,2013-02-11 00:26:00,
2013-02-10 19:27:00,43.3,23.4,30.33,ESE,119,0.0,1.0,45,0.00,,SKC,0.00,0.00,VWS V14.01,2013-02-11 00:27:00,
2013-02-10 19:28:00,43.2,23.3,30.33,ESE,119,0.0,1.0,45,0.00,,SKC,0.00,0.00,VWS V14.01,2013-02-11 00:28:00,
2013-02-10 19:29:00,43.2,23.3,30.33,ESE,119,0.0,1.0,45,0.00,,SKC,0.00,0.00,VWS V14.01,2013-02-11 00:29:00,
2013-02-10 19:31:00,43.2,22.8,30.33,ESE,119,0.0,1.0,44,0.00,,SKC,0.00,0.00,VWS V14.01,2013-02-11 00:31:00,
2013-02-10 19:32:00,43.2,23.3,30.33,ESE,119,0.0,0.0,45,0.00,,SKC,0.00,0.00,VWS V14.01,2013-02-11 00:32:00,
2013-02-10 19:34:00,43.2,22.8,30.33,ESE,119,0.0,0.0,44,0.00,,SKC,0.00,0.00,VWS V14.01,2013-02-11 00:34:00,
2013-02-10 19:36:00,43.2,22.8,30.33,ESE,119,0.0,0.0,44,0.00,,SKC,0.00,0.00,VWS V14.01,2013-02-11 00:36:00,
2013-02-10 19:38:00,43.2,23.3,30.33,ESE,119,0.0,1.0,45,0.00,,SKC,0.00,0.00,VWS V14.01,2013-02-11 00:38:00,
2013-02-10 19:39:00,43.3,23.4,30.33,ESE,119,0.0,1.0,45,0.00,,SKC,0.00,0.00,VWS V14.01,2013-02-11 00:39:00,
2013-02-10 19:41:00,43.2,23.3,30.33,ESE,119,0.0,2.0,45,0.00,,SKC,0.00,0.00,VWS V14.01,2013-02-11 00:41:00,
2013-02-10 19:43:00,43.2,23.3,30.32,ESE,119,0.0,2.0,45,0.00,,SKC,0.00,0.00,VWS V14.01,2013-02-11 00:43:00,
2013-02-10 19:44:00,43.2,23.8,30.32,ESE,119,0.0,2.0,46,0.00,,SKC,0.00,0.00,VWS V14.01,2013-02-11 00:44:00,
2013-02-10 19:46:00,43.2,23.3,30.32,ESE,119,0.0,2.0,45,0.00,,SKC,0.00,0.00,VWS V14.01,2013-02-11 00:46:00,
2013-02-10 19:48:00,43.2,23.3,30.33,ESE,119,0.0,2.0,45,0.00,,SKC,0.00,0.00,VWS V14.01,2013-02-11 00:48:00,
2013-02-10 19:49:00,43.2,23.3,30.33,ESE,119,0.0,2.0,45,0.00,,SKC,0.00,0.00,VWS V14.01,2013-02-11 00:49:00,
2013-02-10 19:51:00,43.1,23.2,30.33,ESE,119,0.0,2.0,45,0.00,,SKC,0.00,0.00,VWS V14.01,2013-02-11 00:51:00,
2013-02-10 19:53:00,43.1,23.2,30.32,ESE,119,0.0,2.0,45,0.00,,SKC,0.00,0.00,VWS V14.01,2013-02-11 00:53:00,
2013-02-10 19:54:00,43.1,23.2,30.32,ESE,119,0.0,2.0,45,0.00,,SKC,0.00,0.00,VWS V14.01,2013-02-11 00:54:00,
2013-02-10 19:56:00,43.1,23.2,30.32,ESE,119,0.0,2.0,45,0.00,,SKC,0.00,0.00,VWS V14.01,2013-02-11 00:56:00,
2013-02-10 19:58:00,43.0,23.1,30.32,ESE,119,0.0,2.0,45,0.00,,SKC,0.00,0.00,VWS V14.01,2013-02-11 00:58:00,
2013-02-10 19:59:00,43.0,23.1,30.32,ESE,119,1.0,2.0,45,0.00,,SKC,0.00,0.00,VWS V14.01,2013-02-11 00:59:00,
2013-02-10 20:01:00,43.0,23.1,30.32,ESE,119,0.0,0.0,45,0.00,,SKC,0.00,0.00,VWS V14.01,2013-02-11 01:01:00,
2013-02-10 20:03:00,42.9,23.0,30.32,ESE,119,2.0,2.0,45,0.00,,SKC,0.00,0.00,VWS V14.01,2013-02-11 01:03:00,
2013-02-10 20:04:00,43.0,23.6,30.32,ESE,119,1.0,2.0,46,0.00,,SKC,0.00,0.00,VWS V14.01,2013-02-11 01:04:00,
2013-02-10 20:06:00,42.9,23.6,30.32,ESE,119,2.0,2.0,46,0.00,,SKC,0.00,0.00,VWS V14.01,2013-02-11 01:06:00,
2013-02-10 20:08:00,42.9,24.1,30.32,NNE,24,2.0,2.0,47,0.00,,SKC,0.00,0.00,VWS V14.01,2013-02-11 01:08:00,
2013-02-10 20:09:00,42.8,24.0,30.32,North,5,2.0,3.0,47,0.00,,SKC,0.00,0.00,VWS V14.01,2013-02-11 01:09:00,
2013-02-10 20:10:00,42.8,24.0,30.32,North,5,2.0,3.0,47,0.00,,SKC,0.00,0.00,VWS V14.01,2013-02-11 01:10:00,
2013-02-10 20:11:00,42.8,23.5,30.32,North,5,1.0,3.0,46,0.00,,SKC,0.00,0.00,VWS V14.01,2013-02-11 01:11:00,
2013-02-10 20:13:00,42.7,23.4,30.33,North,5,1.0,3.0,46,0.00,,SKC,0.00,0.00,VWS V14.01,2013-02-11 01:13:00,
2013-02-10 20:14:00,42.6,23.8,30.33,North,5,1.0,3.0,47,0.00,,SKC,0.00,0.00,VWS V14.01,2013-02-11 01:14:00,
2013-02-10 20:15:00,42.6,24.3,30.33,North,5,2.0,3.0,48,0.00,,SKC,0.00,0.00,VWS V14.01,2013-02-11 01:15:00,
2013-02-10 20:16:00,42.5,24.2,30.32,North,360,2.0,3.0,48,0.00,,SKC,0.00,0.00,VWS V14.01,2013-02-11 01:16:00,
2013-02-10 20:19:00,42.5,23.7,30.32,North,360,2.0,3.0,47,0.00,,SKC,0.00,0.00,VWS V14.01,2013-02-11 01:19:00,
2013-02-10 20:20:00,42.4,23.6,30.32,North,360,2.0,3.0,47,0.00,,SKC,0.00,0.00,VWS V14.01,2013-02-11 01:20:00,
2013-02-10 20:22:00,42.4,24.1,30.32,North,360,1.0,3.0,48,0.00,,SKC,0.00,0.00,VWS V14.01,2013-02-11 01:22:00,
2013-02-10 20:24:00,42.3,23.5,30.32,North,360,0.0,3.0,47,0.00,,SKC,0.00,0.00,VWS V14.01,2013-02-11 01:24:00,
2013-02-10 20:25:00,42.3,23.5,30.32,North,360,1.0,3.0,47,0.00,,SKC,0.00,0.00,VWS V14.01,2013-02-11 01:25:00,
2013-02-10 20:27:00,42.3,23.0,30.32,North,360,0.0,3.0,46,0.00,,SKC,0.00,0.00,VWS V14.01,2013-02-11 01:27:00,
2013-02-10 20:29:00,42.4,23.1,30.33,North,360,1.0,3.0,46,0.00,,SKC,0.00,0.00,VWS V14.01,2013-02-11 01:29:00,
2013-02-10 20:30:00,42.4,22.6,30.32,North,360,1.0,3.0,45,0.00,,SKC,0.00,0.00,VWS V14.01,2013-02-11 01:30:00,
2013-02-10 20:32:00,42.4,23.1,30.32,North,360,0.0,1.0,46,0.00,,SKC,0.00,0.00,VWS V14.01,2013-02-11 01:32:00,
2013-02-10 20:34:00,42.5,22.7,30.32,North,360,0.0,1.0,45,0.00,,SKC,0.00,0.00,VWS V14.01,2013-02-11 01:34:00,
2013-02-10 20:35:00,42.5,22.7,30.32,North,360,0.0,1.0,45,0.00,,SKC,0.00,0.00,VWS V14.01,2013-02-11 01:35:00,
2013-02-10 20:37:00,42.6,22.8,30.32,North,360,0.0,1.0,45,0.00,,SKC,0.00,0.00,VWS V14.01,2013-02-11 01:37:00,
2013-02-10 20:40:00,42.7,23.9,30.32,North,360,0.0,2.0,47,0.00,,SKC,0.00,0.00,VWS V14.01,2013-02-11 01:40:00,
2013-02-10 20:42:00,42.7,23.4,30.32,North,360,0.0,2.0,46,0.00,,SKC,0.00,0.00,VWS V14.01,2013-02-11 01:42:00,
2013-02-10 20:45:00,42.8,23.5,30.31,North,360,0.0,2.0,46,0.00,,SKC,0.00,0.00,VWS V14.01,2013-02-11 01:45:00,
2013-02-10 20:48:00,42.9,23.0,30.31,North,5,0.0,2.0,45,0.00,,SKC,0.00,0.00,VWS V14.01,2013-02-11 01:48:00,
2013-02-10 20:50:00,42.9,23.0,30.31,North,5,0.0,2.0,45,0.00,,SKC,0.00,0.00,VWS V14.01,2013-02-11 01:50:00,
2013-02-10 20:51:00,42.9,23.0,30.31,North,5,0.0,2.0,45,0.00,,SKC,0.00,0.00,VWS V14.01,2013-02-11 01:51:00,
2013-02-10 20:53:00,42.9,23.0,30.30,NNE,13,0.0,2.0,45,0.00,,SKC,0.00,0.00,VWS V14.01,2013-02-11 01:53:00,
2013-02-10 20:55:00,42.9,23.0,30.31,NNE,13,0.0,2.0,45,0.00,,SKC,0.00,0.00,VWS V14.01,2013-02-11 01:55:00,
2013-02-10 20:56:00,42.9,23.0,30.31,NNE,13,0.0,2.0,45,0.00,,SKC,0.00,0.00,VWS V14.01,2013-02-11 01:56:00,
2013-02-10 20:58:00,42.9,23.6,30.31,NNE,13,0.0,2.0,46,0.00,,SKC,0.00,0.00,VWS V14.01,2013-02-11 01:58:00,
2013-02-10 21:00:00,42.9,25.1,30.31,NNE,13,0.0,2.0,49,0.00,,SKC,0.00,0.00,VWS V14.01,2013-02-11 02:00:00,
2013-02-10 21:01:00,42.8,25.0,30.31,NNE,13,0.0,0.0,49,0.00,,SKC,0.00,0.00,VWS V14.01,2013-02-11 02:01:00,
2013-02-10 21:03:00,42.8,25.5,30.31,NNE,13,0.0,0.0,50,0.00,,SKC,0.00,0.00,VWS V14.01,2013-02-11 02:03:00,
2013-02-10 21:05:00,42.5,25.7,30.31,NNE,13,0.0,0.0,51,0.00,,SKC,0.00,0.00,VWS V14.01,2013-02-11 02:05:00,
2013-02-10 21:06:00,42.3,25.5,30.31,NNE,13,0.0,1.0,51,0.00,,SKC,0.00,0.00,VWS V14.01,2013-02-11 02:06:00,
2013-02-10 21:08:00,42.2,24.4,30.31,NNE,13,0.0,1.0,49,0.00,,SKC,0.00,0.00,VWS V14.01,2013-02-11 02:08:00,
2013-02-10 21:10:00,42.1,24.8,30.31,NNE,13,0.0,1.0,50,0.00,,SKC,0.00,0.00,VWS V14.01,2013-02-11 02:10:00,
2013-02-10 21:12:00,42.1,24.8,30.31,NNE,13,1.0,1.0,50,0.00,,SKC,0.00,0.00,VWS V14.01,2013-02-11 02:12:00,
2013-02-10 21:14:00,42.1,24.3,30.31,NNE,13,1.0,3.0,49,0.00,,SKC,0.00,0.00,VWS V14.01,2013-02-11 02:14:00,
2013-02-10 21:15:00,42.1,24.8,30.31,NNW,340,1.0,3.0,50,0.00,,SKC,0.00,0.00,VWS V14.01,2013-02-11 02:15:00,
2013-02-10 21:16:00,42.1,24.8,30.31,NNW,340,0.0,3.0,50,0.00,,SKC,0.00,0.00,VWS V14.01,2013-02-11 02:16:00,
2013-02-10 21:17:00,42.1,24.8,30.30,NNW,340,0.0,3.0,50,0.00,,SKC,0.00,0.00,VWS V14.01,2013-02-11 02:17:00,
2013-02-10 21:19:00,42.1,24.8,30.30,NNW,340,1.0,3.0,50,0.00,,SKC,0.00,0.00,VWS V14.01,2013-02-11 02:19:00,
2013-02-10 21:21:00,42.1,25.3,30.30,NNW,340,0.0,3.0,51,0.00,,SKC,0.00,0.00,VWS V14.01,2013-02-11 02:21:00,
2013-02-10 21:22:00,42.1,25.8,30.30,NNW,340,0.0,3.0,52,0.00,,SKC,0.00,0.00,VWS V14.01,2013-02-11 02:22:00,
2013-02-10 21:24:00,42.1,25.3,30.30,NNW,340,0.0,3.0,51,0.00,,SKC,0.00,0.00,VWS V14.01,2013-02-11 02:24:00,
2013-02-10 21:26:00,42.1,25.3,30.30,NNW,340,0.0,3.0,51,0.00,,SKC,0.00,0.00,VWS V14.01,2013-02-11 02:26:00,
2013-02-10 21:27:00,42.1,25.3,30.30,NNW,340,0.0,3.0,51,0.00,,SKC,0.00,0.00,VWS V14.01,2013-02-11 02:27:00,
2013-02-10 21:29:00,42.1,25.8,30.30,NNW,340,0.0,3.0,52,0.01,,SKC,0.01,0.00,VWS V14.01,2013-02-11 02:29:00,
2013-02-10 21:31:00,42.0,26.6,30.30,NNW,340,0.0,3.0,54,0.01,,SKC,0.01,0.00,VWS V14.01,2013-02-11 02:31:00,
2013-02-10 21:32:00,41.9,26.0,30.30,NNW,340,0.0,1.0,53,0.01,,SKC,0.01,0.00,VWS V14.01,2013-02-11 02:32:00,
2013-02-10 21:34:00,41.8,26.8,30.30,NNW,340,0.0,1.0,55,0.01,,SKC,0.01,0.00,VWS V14.01,2013-02-11 02:34:00,
2013-02-10 21:36:00,41.6,28.4,30.30,NNW,340,1.0,2.0,59,0.02,,SKC,0.02,0.00,VWS V14.01,2013-02-11 02:36:00,
2013-02-10 21:37:00,41.5,28.3,30.30,NNW,340,3.0,3.0,59,0.02,,SKC,0.02,0.00,VWS V14.01,2013-02-11 02:37:00,
2013-02-10 21:39:00,41.3,29.3,30.30,NNW,340,2.0,3.0,62,0.02,,SKC,0.02,0.00,VWS V14.01,2013-02-11 02:39:00,
2013-02-10 21:41:00,41.1,28.7,30.30,NNW,340,0.0,3.0,61,0.02,,SKC,0.02,0.00,VWS V14.01,2013-02-11 02:41:00,
2013-02-10 21:42:00,41.1,28.3,30.30,NNW,340,0.0,3.0,60,0.02,,SKC,0.02,0.00,VWS V14.01,2013-02-11 02:42:00,
2013-02-10 21:44:00,40.9,30.4,30.30,NNW,340,1.0,3.0,66,0.03,,SKC,0.03,0.00,VWS V14.01,2013-02-11 02:44:00,
2013-02-10 21:46:00,40.6,30.9,30.31,NNW,340,2.0,3.0,68,0.03,,SKC,0.03,0.00,VWS V14.01,2013-02-11 02:46:00,
2013-02-10 21:47:00,40.5,31.1,30.31,NNW,340,2.0,3.0,69,0.03,,SKC,0.03,0.00,VWS V14.01,2013-02-11 02:47:00,
2013-02-10 21:50:00,40.0,31.7,30.31,NNW,340,3.0,4.0,72,0.03,,SKC,0.03,0.00,VWS V14.01,2013-02-11 02:50:00,
2013-02-10 21:52:00,39.8,31.5,30.31,NNW,340,2.0,4.0,72,0.03,,SKC,0.03,0.00,VWS V14.01,2013-02-11 02:52:00,
2013-02-10 21:55:00,39.4,31.8,30.30,NNW,340,2.0,4.0,74,0.04,,SKC,0.04,0.00,VWS V14.01,2013-02-11 02:55:00,
2013-02-10 21:57:00,39.3,32.0,30.30,NNW,340,1.0,4.0,75,0.04,,SKC,0.04,0.00,VWS V14.01,2013-02-11 02:57:00,
2013-02-10 22:00:00,39.1,32.5,30.30,NNW,340,2.0,4.0,77,0.05,,SKC,0.05,0.00,VWS V14.01,2013-02-11 03:00:00,
2013-02-10 22:02:00,38.9,32.6,30.30,NNW,340,2.0,2.0,78,0.05,,SKC,0.05,0.00,VWS V14.01,2013-02-11 03:02:00,
2013-02-10 22:05:00,38.6,32.7,30.29,NNW,340,1.0,2.0,79,0.05,,SKC,0.05,0.00,VWS V14.01,2013-02-11 03:05:00,
2013-02-10 22:07:00,38.6,33.0,30.29,NNW,340,0.0,2.0,80,0.05,,SKC,0.05,0.00,VWS V14.01,2013-02-11 03:07:00,
2013-02-10 22:08:00,38.4,32.8,30.28,NNW,340,1.0,2.0,80,0.05,,SKC,0.05,0.00,VWS V14.01,2013-02-11 03:08:00,
2013-02-10 22:10:00,38.3,33.3,30.28,NNW,340,2.0,2.0,82,0.05,,SKC,0.05,0.00,VWS V14.01,2013-02-11 03:10:00,
2013-02-10 22:12:00,38.1,33.4,30.28,NNW,340,1.0,2.0,83,0.05,,SKC,0.05,0.00,VWS V14.01,2013-02-11 03:12:00,
2013-02-10 22:13:00,38.1,33.4,30.28,NNW,340,1.0,2.0,83,0.05,,SKC,0.05,0.00,VWS V14.01,2013-02-11 03:13:00,
2013-02-10 22:15:00,37.9,33.5,30.28,NNW,340,0.0,2.0,84,0.05,,SKC,0.05,0.00,VWS V14.01,2013-02-11 03:15:00,
2013-02-10 22:17:00,37.8,33.7,30.27,NNW,340,1.0,2.0,85,0.05,,SKC,0.05,0.00,VWS V14.01,2013-02-11 03:17:00,
2013-02-10 22:18:00,37.7,33.6,30.27,NNW,340,0.0,2.0,85,0.05,,SKC,0.05,0.00,VWS V14.01,2013-02-11 03:18:00,
2013-02-10 22:20:00,37.6,33.5,30.27,NNW,340,1.0,2.0,85,0.05,,SKC,0.05,0.00,VWS V14.01,2013-02-11 03:20:00,
2013-02-10 22:22:00,37.5,33.7,30.27,NNW,340,1.0,2.0,86,0.05,,SKC,0.05,0.00,VWS V14.01,2013-02-11 03:22:00,
2013-02-10 22:23:00,37.5,33.7,30.27,NNW,340,2.0,2.0,86,0.05,,SKC,0.05,0.00,VWS V14.01,2013-02-11 03:23:00,
2013-02-10 22:25:00,37.4,33.6,30.27,NNW,340,2.0,2.0,86,0.05,,SKC,0.05,0.00,VWS V14.01,2013-02-11 03:25:00,
2013-02-10 22:27:00,37.3,33.8,30.27,NNW,340,2.0,4.0,87,0.05,,SKC,0.05,0.00,VWS V14.01,2013-02-11 03:27:00,
2013-02-10 22:28:00,37.3,33.8,30.27,NNW,340,1.0,4.0,87,0.05,,SKC,0.05,0.00,VWS V14.01,2013-02-11 03:28:00,
2013-02-10 22:30:00,37.2,34.0,30.28,NNW,340,3.0,4.0,88,0.05,,SKC,0.05,0.00,VWS V14.01,2013-02-11 03:30:00,
2013-02-10 22:32:00,37.1,33.9,30.28,NNW,340,2.0,3.0,88,0.04,,SKC,0.05,0.00,VWS V14.01,2013-02-11 03:32:00,
2013-02-10 22:33:00,37.0,34.1,30.28,NNW,340,3.0,3.0,89,0.04,,SKC,0.05,0.00,VWS V14.01,2013-02-11 03:33:00,
2013-02-10 22:35:00,37.0,34.1,30.28,NNW,340,3.0,3.0,89,0.04,,SKC,0.05,0.00,VWS V14.01,2013-02-11 03:35:00,
2013-02-10 22:37:00,36.9,34.0,30.28,NNW,340,2.0,3.0,89,0.04,,SKC,0.05,0.00,VWS V14.01,2013-02-11 03:37:00,
2013-02-10 22:38:00,36.9,34.2,30.28,NNW,340,1.0,3.0,90,0.04,,SKC,0.05,0.00,VWS V14.01,2013-02-11 03:38:00,
2013-02-10 22:41:00,36.9,34.2,30.28,NNW,340,0.0,3.0,90,0.04,,SKC,0.05,0.00,VWS V14.01,2013-02-11 03:41:00,
2013-02-10 22:42:00,36.9,34.2,30.27,NNW,340,0.0,3.0,90,0.04,,SKC,0.05,0.00,VWS V14.01,2013-02-11 03:42:00,
2013-02-10 22:43:00,36.9,34.2,30.27,NNW,340,0.0,3.0,90,0.04,,SKC,0.05,0.00,VWS V14.01,2013-02-11 03:43:00,
2013-02-10 22:44:00,36.9,34.2,30.27,NNW,340,0.0,3.0,90,0.04,,SKC,0.05,0.00,VWS V14.01,2013-02-11 03:44:00,
2013-02-10 22:46:00,36.9,34.2,30.27,NNW,340,0.0,3.0,90,0.04,,SKC,0.05,0.00,VWS V14.01,2013-02-11 03:46:00,
2013-02-10 22:47:00,36.9,34.2,30.27,NNW,340,0.0,3.0,90,0.04,,SKC,0.05,0.00,VWS V14.01,2013-02-11 03:47:00,
2013-02-10 22:48:00,36.9,34.2,30.27,NNW,340,0.0,3.0,90,0.04,,SKC,0.05,0.00,VWS V14.01,2013-02-11 03:48:00,
2013-02-10 22:49:00,36.9,34.2,30.27,NNW,340,1.0,3.0,90,0.04,,SKC,0.05,0.00,VWS V14.01,2013-02-11 03:49:00,
2013-02-10 22:51:00,36.9,34.2,30.27,NNW,340,0.0,3.0,90,0.04,,SKC,0.05,0.00,VWS V14.01,2013-02-11 03:51:00,
2013-02-10 22:52:00,36.9,34.2,30.27,NNW,340,0.0,3.0,90,0.04,,SKC,0.05,0.00,VWS V14.01,2013-02-11 03:52:00,
2013-02-10 22:53:00,36.9,34.2,30.27,NNW,340,2.0,3.0,90,0.04,,SKC,0.05,0.00,VWS V14.01,2013-02-11 03:53:00,
2013-02-10 22:54:00,36.9,34.2,30.27,NNW,340,2.0,3.0,90,0.04,,SKC,0.05,0.00,VWS V14.01,2013-02-11 03:54:00,
2013-02-10 22:56:00,37.0,34.3,30.27,NNW,340,2.0,3.0,90,0.04,,SKC,0.05,0.00,VWS V14.01,2013-02-11 03:56:00,
2013-02-10 22:57:00,37.0,34.3,30.27,NNW,340,2.0,3.0,90,0.04,,SKC,0.05,0.00,VWS V14.01,2013-02-11 03:57:00,
2013-02-10 22:58:00,37.0,34.3,30.27,NNW,340,1.0,3.0,90,0.04,,SKC,0.05,0.00,VWS V14.01,2013-02-11 03:58:00,
2013-02-10 22:59:00,37.0,34.3,30.27,NNW,340,1.0,3.0,90,0.04,,SKC,0.05,0.00,VWS V14.01,2013-02-11 03:59:00,
2013-02-10 23:02:00,37.1,34.4,30.27,NNW,340,2.0,3.0,90,0.00,,SKC,0.05,0.00,VWS V14.01,2013-02-11 04:02:00,
2013-02-10 23:03:00,37.1,34.4,30.27,NNW,340,2.0,3.0,90,0.00,,SKC,0.05,0.00,VWS V14.01,2013-02-11 04:03:00,
2013-02-10 23:05:00,37.1,34.4,30.26,NNW,340,1.0,3.0,90,0.00,,SKC,0.05,0.00,VWS V14.01,2013-02-11 04:05:00,
2013-02-10 23:07:00,37.1,34.4,30.26,NNW,340,0.0,3.0,90,0.01,,SKC,0.06,0.00,VWS V14.01,2013-02-11 04:07:00,
2013-02-10 23:08:00,37.2,34.5,30.26,NNW,340,0.0,3.0,90,0.01,,SKC,0.06,0.00,VWS V14.01,2013-02-11 04:08:00,
2013-02-10 23:10:00,37.2,34.5,30.26,NNW,340,1.0,3.0,90,0.01,,SKC,0.06,0.00,VWS V14.01,2013-02-11 04:10:00,
2013-02-10 23:12:00,37.2,34.5,30.25,NNW,340,0.0,3.0,90,0.01,,SKC,0.06,0.00,VWS V14.01,2013-02-11 04:12:00,
2013-02-10 23:13:00,37.3,34.6,30.25,NNW,340,0.0,3.0,90,0.01,,SKC,0.06,0.00,VWS V14.01,2013-02-11 04:13:00,
2013-02-10 23:15:00,37.3,34.6,30.26,NNW,340,0.0,3.0,90,0.01,,SKC,0.06,0.00,VWS V14.01,2013-02-11 04:15:00,
2013-02-10 23:17:00,37.3,34.6,30.25,NNW,340,0.0,3.0,90,0.01,,SKC,0.06,0.00,VWS V14.01,2013-02-11 04:17:00,
2013-02-10 23:18:00,37.3,34.6,30.25,NNW,340,1.0,3.0,90,0.01,,SKC,0.06,0.00,VWS V14.01,2013-02-11 04:18:00,
2013-02-10 23:20:00,37.3,34.6,30.25,NNW,340,0.0,3.0,90,0.01,,SKC,0.06,0.00,VWS V14.01,2013-02-11 04:20:00,
2013-02-10 23:22:00,37.3,34.6,30.25,NNW,340,0.0,3.0,90,0.01,,SKC,0.06,0.00,VWS V14.01,2013-02-11 04:22:00,
2013-02-10 23:23:00,37.3,34.6,30.25,NNW,340,0.0,3.0,90,0.01,,SKC,0.06,0.00,VWS V14.01,2013-02-11 04:23:00,
2013-02-10 23:26:00,37.3,34.6,30.25,NNW,340,1.0,3.0,90,0.01,,SKC,0.06,0.00,VWS V14.01,2013-02-11 04:26:00,
2013-02-10 23:27:00,37.3,34.6,30.25,NNW,340,0.0,3.0,90,0.01,,SKC,0.06,0.00,VWS V14.01,2013-02-11 04:27:00,
2013-02-10 23:28:00,37.4,34.7,30.25,NNW,340,0.0,3.0,90,0.01,,SKC,0.06,0.00,VWS V14.01,2013-02-11 04:28:00,
2013-02-10 23:31:00,37.4,34.7,30.25,NNW,340,1.0,3.0,90,0.01,,SKC,0.06,0.00,VWS V14.01,2013-02-11 04:31:00,
2013-02-10 23:32:00,37.4,34.7,30.25,NNW,340,2.0,3.0,90,0.01,,SKC,0.06,0.00,VWS V14.01,2013-02-11 04:32:00,
2013-02-10 23:33:00,37.4,34.7,30.25,NNW,340,2.0,3.0,90,0.01,,SKC,0.06,0.00,VWS V14.01,2013-02-11 04:33:00,
2013-02-10 23:36:00,37.5,35.1,30.25,NNW,340,2.0,3.0,91,0.01,,SKC,0.06,0.00,VWS V14.01,2013-02-11 04:36:00,
2013-02-10 23:37:00,37.4,35.0,30.25,NNW,340,3.0,4.0,91,0.01,,SKC,0.06,0.00,VWS V14.01,2013-02-11 04:37:00,
2013-02-10 23:38:00,37.4,35.0,30.25,NNW,340,3.0,4.0,91,0.01,,SKC,0.06,0.00,VWS V14.01,2013-02-11 04:38:00,
2013-02-10 23:39:00,37.4,35.0,30.25,NNW,340,2.0,4.0,91,0.01,,SKC,0.06,0.00,VWS V14.01,2013-02-11 04:39:00,
2013-02-10 23:41:00,37.4,35.0,30.25,NNW,340,1.0,4.0,91,0.01,,SKC,0.06,0.00,VWS V14.01,2013-02-11 04:41:00,
2013-02-10 23:42:00,37.4,35.0,30.25,NNW,340,0.0,4.0,91,0.01,,SKC,0.06,0.00,VWS V14.01,2013-02-11 04:42:00,
2013-02-10 23:43:00,37.4,35.0,30.25,NNW,340,0.0,4.0,91,0.01,,SKC,0.06,0.00,VWS V14.01,2013-02-11 04:43:00,
2013-02-10 23:44:00,37.4,35.0,30.25,NNW,340,0.0,4.0,91,0.01,,SKC,0.06,0.00,VWS V14.01,2013-02-11 04:44:00,
2013-02-10 23:46:00,37.4,35.0,30.25,NNW,340,0.0,4.0,91,0.01,,SKC,0.06,0.00,VWS V14.01,2013-02-11 04:46:00,
2013-02-10 23:48:00,37.4,34.7,30.25,NNW,340,0.0,4.0,90,0.01,,SKC,0.06,0.00,VWS V14.01,2013-02-11 04:48:00,
2013-02-10 23:50:00,37.4,34.7,30.25,NNW,340,0.0,4.0,90,0.01,,SKC,0.06,0.00,VWS V14.01,2013-02-11 04:50:00,
2013-02-10 23:52:00,37.4,35.0,30.24,NNW,340,0.0,4.0,91,0.01,,SKC,0.06,0.00,VWS V14.01,2013-02-11 04:52:00,
2013-02-10 23:53:00,37.4,35.0,30.24,NNW,340,0.0,4.0,91,0.01,,SKC,0.06,0.00,VWS V14.01,2013-02-11 04:53:00,
2013-02-10 23:55:00,37.5,35.1,30.24,NNW,340,0.0,4.0,91,0.01,,SKC,0.06,0.00,VWS V14.01,2013-02-11 04:55:00,
2013-02-10 23:57:00,37.5,35.1,30.25,NNW,340,2.0,4.0,91,0.01,,SKC,0.06,0.00,VWS V14.01,2013-02-11 04:57:00,
2013-02-10 23:58:00,37.5,35.1,30.25,NNW,340,1.0,4.0,91,0.01,,SKC,0.06,0.00,VWS V14.01,2013-02-11 04:58:00,